<?xml version="1.0" encoding="UTF-8" standalone="yes"?>
<gpx
 xmlns="http://www.topografix.com/GPX/1/1"
 creator="OziExplorer Version 3956f - http://www.oziexplorer.com"
 version="1.1"
 xmlns:xsi="http://www.w3.org/2001/XMLSchema-instance"
 xsi:schemaLocation="http://www.topografix.com/GPX/1/1 http://www.topografix.com/GPX/1/1/gpx.xsd">
<metadata>
 <time>2025-05-21T07:20:19Z</time>
 <bounds minlat="31.736370" minlon="35.090230" maxlat="31.774010" maxlon="35.153980"/>
</metadata>
<wpt lat="31.7691700" lon="35.1308400">
 <time>2025-05-21T10:17:06.266Z</time>
 <name>St\Fin</name>
 <sym>Bike Trail</sym>
</wpt>
<trk>
 <name>Sorek-Adasa-Aminadav_29km.550m</name>
 <desc>Sorek-Adasa-Aminadav_29km.550m</desc>
<trkseg>
<trkpt lat="31.7691800" lon="35.1306800">
<ele>474.479980</ele>
<time>2025-05-21T10:17:06.266Z</time>
</trkpt>
<trkpt lat="31.7689600" lon="35.1306300">
<ele>477.790009</ele>
<time>2025-05-21T10:17:06.266Z</time>
</trkpt>
<trkpt lat="31.7688200" lon="35.1305900">
<ele>480.609985</ele>
<time>2025-05-21T10:17:06.266Z</time>
</trkpt>
<trkpt lat="31.7687300" lon="35.1305300">
<ele>482.630005</ele>
<time>2025-05-21T10:17:06.266Z</time>
</trkpt>
<trkpt lat="31.7686400" lon="35.1304300">
<ele>484.610016</ele>
<time>2025-05-21T10:17:06.266Z</time>
</trkpt>
<trkpt lat="31.7686000" lon="35.1303600">
<ele>485.099976</ele>
<time>2025-05-21T10:17:06.266Z</time>
</trkpt>
<trkpt lat="31.7683500" lon="35.1295200">
<ele>480.869995</ele>
<time>2025-05-21T10:17:06.266Z</time>
</trkpt>
<trkpt lat="31.7681900" lon="35.1288000">
<ele>486.529999</ele>
<time>2025-05-21T10:17:06.266Z</time>
</trkpt>
<trkpt lat="31.7681200" lon="35.1286000">
<ele>487.339996</ele>
<time>2025-05-21T10:17:06.266Z</time>
</trkpt>
<trkpt lat="31.7680800" lon="35.1285100">
<ele>488.139984</ele>
<time>2025-05-21T10:17:06.266Z</time>
</trkpt>
<trkpt lat="31.7680300" lon="35.1284500">
<ele>488.080017</ele>
<time>2025-05-21T10:17:06.266Z</time>
</trkpt>
<trkpt lat="31.7677500" lon="35.1282300">
<ele>483.540009</ele>
<time>2025-05-21T10:17:06.266Z</time>
</trkpt>
<trkpt lat="31.7670100" lon="35.1277300">
<ele>486.889984</ele>
<time>2025-05-21T10:17:06.266Z</time>
</trkpt>
<trkpt lat="31.7667700" lon="35.1275900">
<ele>482.779968</ele>
<time>2025-05-21T10:17:06.266Z</time>
</trkpt>
<trkpt lat="31.7666500" lon="35.1275500">
<ele>480.590027</ele>
<time>2025-05-21T10:17:06.266Z</time>
</trkpt>
<trkpt lat="31.7664800" lon="35.1275200">
<ele>478.899994</ele>
<time>2025-05-21T10:17:06.266Z</time>
</trkpt>
<trkpt lat="31.7660600" lon="35.1275100">
<ele>471.940002</ele>
<time>2025-05-21T10:17:06.266Z</time>
</trkpt>
<trkpt lat="31.7656700" lon="35.1276000">
<ele>470.400024</ele>
<time>2025-05-21T10:17:06.266Z</time>
</trkpt>
<trkpt lat="31.7647900" lon="35.1278600">
<ele>466.649994</ele>
<time>2025-05-21T10:17:06.266Z</time>
</trkpt>
<trkpt lat="31.7645500" lon="35.1278700">
<ele>468.059998</ele>
<time>2025-05-21T10:17:06.266Z</time>
</trkpt>
<trkpt lat="31.7644300" lon="35.1278500">
<ele>468.750000</ele>
<time>2025-05-21T10:17:06.266Z</time>
</trkpt>
<trkpt lat="31.7643300" lon="35.1278100">
<ele>467.350006</ele>
<time>2025-05-21T10:17:06.266Z</time>
</trkpt>
<trkpt lat="31.7642000" lon="35.1277400">
<ele>467.040009</ele>
<time>2025-05-21T10:17:06.266Z</time>
</trkpt>
<trkpt lat="31.7638500" lon="35.1275500">
<ele>475.549988</ele>
<time>2025-05-21T10:17:06.266Z</time>
</trkpt>
<trkpt lat="31.7637200" lon="35.1274500">
<ele>476.109985</ele>
<time>2025-05-21T10:17:06.266Z</time>
</trkpt>
<trkpt lat="31.7635400" lon="35.1272600">
<ele>477.609985</ele>
<time>2025-05-21T10:17:06.266Z</time>
</trkpt>
<trkpt lat="31.7634500" lon="35.1271500">
<ele>476.310028</ele>
<time>2025-05-21T10:17:06.266Z</time>
</trkpt>
<trkpt lat="31.7634100" lon="35.1269900">
<ele>475.039978</ele>
<time>2025-05-21T10:17:06.266Z</time>
</trkpt>
<trkpt lat="31.7634100" lon="35.1268300">
<ele>474.119995</ele>
<time>2025-05-21T10:17:06.266Z</time>
</trkpt>
<trkpt lat="31.7634900" lon="35.1261500">
<ele>468.439972</ele>
<time>2025-05-21T10:17:06.266Z</time>
</trkpt>
<trkpt lat="31.7635400" lon="35.1259700">
<ele>467.830017</ele>
<time>2025-05-21T10:17:06.266Z</time>
</trkpt>
<trkpt lat="31.7636100" lon="35.1257800">
<ele>468.560028</ele>
<time>2025-05-21T10:17:06.266Z</time>
</trkpt>
<trkpt lat="31.7639000" lon="35.1251700">
<ele>471.269989</ele>
<time>2025-05-21T10:17:06.266Z</time>
</trkpt>
<trkpt lat="31.7640000" lon="35.1249000">
<ele>475.940002</ele>
<time>2025-05-21T10:17:06.266Z</time>
</trkpt>
<trkpt lat="31.7641000" lon="35.1245100">
<ele>478.230011</ele>
<time>2025-05-21T10:17:06.266Z</time>
</trkpt>
<trkpt lat="31.7641100" lon="35.1243800">
<ele>477.910004</ele>
<time>2025-05-21T10:17:06.266Z</time>
</trkpt>
<trkpt lat="31.7640800" lon="35.1240800">
<ele>475.849976</ele>
<time>2025-05-21T10:17:06.266Z</time>
</trkpt>
<trkpt lat="31.7640300" lon="35.1238000">
<ele>474.100006</ele>
<time>2025-05-21T10:17:06.266Z</time>
</trkpt>
<trkpt lat="31.7639700" lon="35.1236000">
<ele>471.720001</ele>
<time>2025-05-21T10:17:06.266Z</time>
</trkpt>
<trkpt lat="31.7638500" lon="35.1227700">
<ele>468.630005</ele>
<time>2025-05-21T10:17:06.266Z</time>
</trkpt>
<trkpt lat="31.7638000" lon="35.1222300">
<ele>470.060028</ele>
<time>2025-05-21T10:17:06.266Z</time>
</trkpt>
<trkpt lat="31.7637700" lon="35.1213400">
<ele>471.699982</ele>
<time>2025-05-21T10:17:06.266Z</time>
</trkpt>
<trkpt lat="31.7637000" lon="35.1205500">
<ele>472.769989</ele>
<time>2025-05-21T10:17:06.266Z</time>
</trkpt>
<trkpt lat="31.7636600" lon="35.1202300">
<ele>472.249969</ele>
<time>2025-05-21T10:17:06.266Z</time>
</trkpt>
<trkpt lat="31.7635300" lon="35.1199400">
<ele>471.390015</ele>
<time>2025-05-21T10:17:06.266Z</time>
</trkpt>
<trkpt lat="31.7634000" lon="35.1197400">
<ele>469.550018</ele>
<time>2025-05-21T10:17:06.266Z</time>
</trkpt>
<trkpt lat="31.7633300" lon="35.1196600">
<ele>469.320007</ele>
<time>2025-05-21T10:17:06.266Z</time>
</trkpt>
<trkpt lat="31.7633300" lon="35.1196600">
<ele>469.320007</ele>
<time>2025-05-21T10:17:06.266Z</time>
</trkpt>
<trkpt lat="31.7634200" lon="35.1197500">
<ele>469.979980</ele>
<time>2025-05-21T10:17:06.266Z</time>
</trkpt>
<trkpt lat="31.7635400" lon="35.1199300">
<ele>471.709991</ele>
<time>2025-05-21T10:17:06.266Z</time>
</trkpt>
<trkpt lat="31.7636600" lon="35.1202200">
<ele>472.350006</ele>
<time>2025-05-21T10:17:06.266Z</time>
</trkpt>
<trkpt lat="31.7637000" lon="35.1205300">
<ele>472.800018</ele>
<time>2025-05-21T10:17:06.266Z</time>
</trkpt>
<trkpt lat="31.7637700" lon="35.1213400">
<ele>471.699982</ele>
<time>2025-05-21T10:17:06.266Z</time>
</trkpt>
<trkpt lat="31.7638000" lon="35.1222400">
<ele>470.040009</ele>
<time>2025-05-21T10:17:06.266Z</time>
</trkpt>
<trkpt lat="31.7638500" lon="35.1227700">
<ele>468.630005</ele>
<time>2025-05-21T10:17:06.266Z</time>
</trkpt>
<trkpt lat="31.7639700" lon="35.1236200">
<ele>471.630005</ele>
<time>2025-05-21T10:17:06.266Z</time>
</trkpt>
<trkpt lat="31.7640300" lon="35.1238100">
<ele>474.049988</ele>
<time>2025-05-21T10:17:06.266Z</time>
</trkpt>
<trkpt lat="31.7640600" lon="35.1240800">
<ele>474.819977</ele>
<time>2025-05-21T10:17:06.266Z</time>
</trkpt>
<trkpt lat="31.7640700" lon="35.1243900">
<ele>475.929993</ele>
<time>2025-05-21T10:17:06.266Z</time>
</trkpt>
<trkpt lat="31.7640700" lon="35.1245000">
<ele>476.589996</ele>
<time>2025-05-21T10:17:06.266Z</time>
</trkpt>
<trkpt lat="31.7640100" lon="35.1249000">
<ele>476.539978</ele>
<time>2025-05-21T10:17:06.266Z</time>
</trkpt>
<trkpt lat="31.7639100" lon="35.1251600">
<ele>471.819977</ele>
<time>2025-05-21T10:17:06.266Z</time>
</trkpt>
<trkpt lat="31.7636000" lon="35.1258000">
<ele>468.200012</ele>
<time>2025-05-21T10:17:06.266Z</time>
</trkpt>
<trkpt lat="31.7635300" lon="35.1259800">
<ele>467.730011</ele>
<time>2025-05-21T10:17:06.266Z</time>
</trkpt>
<trkpt lat="31.7634900" lon="35.1261500">
<ele>468.439972</ele>
<time>2025-05-21T10:17:06.266Z</time>
</trkpt>
<trkpt lat="31.7634800" lon="35.1262100">
<ele>469.230011</ele>
<time>2025-05-21T10:17:06.266Z</time>
</trkpt>
<trkpt lat="31.7634400" lon="35.1268500">
<ele>474.600006</ele>
<time>2025-05-21T10:17:06.266Z</time>
</trkpt>
<trkpt lat="31.7634400" lon="35.1270000">
<ele>475.429993</ele>
<time>2025-05-21T10:17:06.266Z</time>
</trkpt>
<trkpt lat="31.7634600" lon="35.1271600">
<ele>476.500000</ele>
<time>2025-05-21T10:17:06.266Z</time>
</trkpt>
<trkpt lat="31.7635300" lon="35.1272600">
<ele>477.489990</ele>
<time>2025-05-21T10:17:06.266Z</time>
</trkpt>
<trkpt lat="31.7637100" lon="35.1274500">
<ele>476.079987</ele>
<time>2025-05-21T10:17:06.266Z</time>
</trkpt>
<trkpt lat="31.7638400" lon="35.1275500">
<ele>475.529999</ele>
<time>2025-05-21T10:17:06.266Z</time>
</trkpt>
<trkpt lat="31.7642100" lon="35.1277500">
<ele>466.819977</ele>
<time>2025-05-21T10:17:06.266Z</time>
</trkpt>
<trkpt lat="31.7643400" lon="35.1278100">
<ele>467.390015</ele>
<time>2025-05-21T10:17:06.266Z</time>
</trkpt>
<trkpt lat="31.7644200" lon="35.1278300">
<ele>468.210022</ele>
<time>2025-05-21T10:17:06.266Z</time>
</trkpt>
<trkpt lat="31.7645300" lon="35.1278400">
<ele>467.580017</ele>
<time>2025-05-21T10:17:06.266Z</time>
</trkpt>
<trkpt lat="31.7647600" lon="35.1278400">
<ele>465.809998</ele>
<time>2025-05-21T10:17:06.266Z</time>
</trkpt>
<trkpt lat="31.7656800" lon="35.1275900">
<ele>470.429993</ele>
<time>2025-05-21T10:17:06.266Z</time>
</trkpt>
<trkpt lat="31.7660700" lon="35.1275500">
<ele>472.450012</ele>
<time>2025-05-21T10:17:06.266Z</time>
</trkpt>
<trkpt lat="31.7665000" lon="35.1275500">
<ele>479.410004</ele>
<time>2025-05-21T10:17:06.266Z</time>
</trkpt>
<trkpt lat="31.7666500" lon="35.1275600">
<ele>480.729980</ele>
<time>2025-05-21T10:17:06.266Z</time>
</trkpt>
<trkpt lat="31.7667600" lon="35.1275800">
<ele>482.500000</ele>
<time>2025-05-21T10:17:06.266Z</time>
</trkpt>
<trkpt lat="31.7669900" lon="35.1277100">
<ele>486.809998</ele>
<time>2025-05-21T10:17:06.266Z</time>
</trkpt>
<trkpt lat="31.7677700" lon="35.1282500">
<ele>483.100006</ele>
<time>2025-05-21T10:17:06.266Z</time>
</trkpt>
<trkpt lat="31.7680500" lon="35.1284600">
<ele>488.290009</ele>
<time>2025-05-21T10:17:06.266Z</time>
</trkpt>
<trkpt lat="31.7680900" lon="35.1285100">
<ele>488.750000</ele>
<time>2025-05-21T10:17:06.266Z</time>
</trkpt>
<trkpt lat="31.7681200" lon="35.1285800">
<ele>488.059998</ele>
<time>2025-05-21T10:17:06.266Z</time>
</trkpt>
<trkpt lat="31.7681800" lon="35.1287700">
<ele>486.790009</ele>
<time>2025-05-21T10:17:06.266Z</time>
</trkpt>
<trkpt lat="31.7683400" lon="35.1295200">
<ele>480.509979</ele>
<time>2025-05-21T10:17:06.266Z</time>
</trkpt>
<trkpt lat="31.7686100" lon="35.1303900">
<ele>485.009979</ele>
<time>2025-05-21T10:17:06.266Z</time>
</trkpt>
<trkpt lat="31.7686500" lon="35.1304500">
<ele>484.429993</ele>
<time>2025-05-21T10:17:06.266Z</time>
</trkpt>
<trkpt lat="31.7687200" lon="35.1305400">
<ele>482.760010</ele>
<time>2025-05-21T10:17:06.266Z</time>
</trkpt>
<trkpt lat="31.7688100" lon="35.1305900">
<ele>480.839996</ele>
<time>2025-05-21T10:17:06.266Z</time>
</trkpt>
<trkpt lat="31.7689400" lon="35.1306300">
<ele>478.130005</ele>
<time>2025-05-21T10:17:06.266Z</time>
</trkpt>
<trkpt lat="31.7695500" lon="35.1307100">
<ele>475.220001</ele>
<time>2025-05-21T10:17:06.266Z</time>
</trkpt>
<trkpt lat="31.7696700" lon="35.1307100">
<ele>474.450012</ele>
<time>2025-05-21T10:17:06.266Z</time>
</trkpt>
<trkpt lat="31.7699100" lon="35.1306300">
<ele>475.649994</ele>
<time>2025-05-21T10:17:06.266Z</time>
</trkpt>
<trkpt lat="31.7703500" lon="35.1304500">
<ele>483.220001</ele>
<time>2025-05-21T10:17:06.266Z</time>
</trkpt>
<trkpt lat="31.7708100" lon="35.1303100">
<ele>481.679993</ele>
<time>2025-05-21T10:17:06.266Z</time>
</trkpt>
<trkpt lat="31.7711400" lon="35.1302700">
<ele>488.810028</ele>
<time>2025-05-21T10:17:06.266Z</time>
</trkpt>
<trkpt lat="31.7712500" lon="35.1302600">
<ele>491.660004</ele>
<time>2025-05-21T10:17:06.266Z</time>
</trkpt>
<trkpt lat="31.7714500" lon="35.1303000">
<ele>494.240021</ele>
<time>2025-05-21T10:17:06.266Z</time>
</trkpt>
<trkpt lat="31.7716300" lon="35.1304200">
<ele>491.440002</ele>
<time>2025-05-21T10:17:06.266Z</time>
</trkpt>
<trkpt lat="31.7716800" lon="35.1304700">
<ele>490.690002</ele>
<time>2025-05-21T10:17:06.266Z</time>
</trkpt>
<trkpt lat="31.7717000" lon="35.1304900">
<ele>490.650024</ele>
<time>2025-05-21T10:17:06.266Z</time>
</trkpt>
<trkpt lat="31.7717700" lon="35.1305700">
<ele>490.290009</ele>
<time>2025-05-21T10:17:06.266Z</time>
</trkpt>
<trkpt lat="31.7718500" lon="35.1307200">
<ele>489.100006</ele>
<time>2025-05-21T10:17:06.266Z</time>
</trkpt>
<trkpt lat="31.7719100" lon="35.1308700">
<ele>487.489990</ele>
<time>2025-05-21T10:17:06.266Z</time>
</trkpt>
<trkpt lat="31.7719600" lon="35.1313200">
<ele>488.859985</ele>
<time>2025-05-21T10:17:06.266Z</time>
</trkpt>
<trkpt lat="31.7719800" lon="35.1316500">
<ele>488.070007</ele>
<time>2025-05-21T10:17:06.266Z</time>
</trkpt>
<trkpt lat="31.7719800" lon="35.1318600">
<ele>487.300018</ele>
<time>2025-05-21T10:17:06.266Z</time>
</trkpt>
<trkpt lat="31.7719900" lon="35.1320600">
<ele>486.930023</ele>
<time>2025-05-21T10:17:06.266Z</time>
</trkpt>
<trkpt lat="31.7720900" lon="35.1332300">
<ele>492.710022</ele>
<time>2025-05-21T10:17:06.266Z</time>
</trkpt>
<trkpt lat="31.7722300" lon="35.1341400">
<ele>494.750000</ele>
<time>2025-05-21T10:17:06.266Z</time>
</trkpt>
<trkpt lat="31.7722300" lon="35.1346200">
<ele>499.829987</ele>
<time>2025-05-21T10:17:06.266Z</time>
</trkpt>
<trkpt lat="31.7722200" lon="35.1348300">
<ele>501.000000</ele>
<time>2025-05-21T10:17:06.266Z</time>
</trkpt>
<trkpt lat="31.7722000" lon="35.1349400">
<ele>500.950012</ele>
<time>2025-05-21T10:17:06.266Z</time>
</trkpt>
<trkpt lat="31.7721400" lon="35.1350600">
<ele>500.700012</ele>
<time>2025-05-21T10:17:06.266Z</time>
</trkpt>
<trkpt lat="31.7720100" lon="35.1351000">
<ele>500.240021</ele>
<time>2025-05-21T10:17:06.266Z</time>
</trkpt>
<trkpt lat="31.7718700" lon="35.1351100">
<ele>500.700012</ele>
<time>2025-05-21T10:17:06.266Z</time>
</trkpt>
<trkpt lat="31.7717300" lon="35.1351000">
<ele>502.040009</ele>
<time>2025-05-21T10:17:06.266Z</time>
</trkpt>
<trkpt lat="31.7714800" lon="35.1350100">
<ele>506.199982</ele>
<time>2025-05-21T10:17:06.266Z</time>
</trkpt>
<trkpt lat="31.7712700" lon="35.1349800">
<ele>508.489990</ele>
<time>2025-05-21T10:17:06.266Z</time>
</trkpt>
<trkpt lat="31.7711800" lon="35.1349700">
<ele>508.809998</ele>
<time>2025-05-21T10:17:06.266Z</time>
</trkpt>
<trkpt lat="31.7711000" lon="35.1349800">
<ele>508.500000</ele>
<time>2025-05-21T10:17:06.266Z</time>
</trkpt>
<trkpt lat="31.7709900" lon="35.1350000">
<ele>507.130005</ele>
<time>2025-05-21T10:17:06.266Z</time>
</trkpt>
<trkpt lat="31.7707300" lon="35.1351900">
<ele>502.890015</ele>
<time>2025-05-21T10:17:06.266Z</time>
</trkpt>
<trkpt lat="31.7706200" lon="35.1353000">
<ele>500.950012</ele>
<time>2025-05-21T10:17:06.266Z</time>
</trkpt>
<trkpt lat="31.7705000" lon="35.1355300">
<ele>499.689972</ele>
<time>2025-05-21T10:17:06.266Z</time>
</trkpt>
<trkpt lat="31.7701100" lon="35.1366700">
<ele>496.009979</ele>
<time>2025-05-21T10:17:06.266Z</time>
</trkpt>
<trkpt lat="31.7701100" lon="35.1367400">
<ele>496.210022</ele>
<time>2025-05-21T10:17:06.266Z</time>
</trkpt>
<trkpt lat="31.7701200" lon="35.1369300">
<ele>496.819977</ele>
<time>2025-05-21T10:17:06.266Z</time>
</trkpt>
<trkpt lat="31.7701200" lon="35.1371000">
<ele>497.500000</ele>
<time>2025-05-21T10:17:06.266Z</time>
</trkpt>
<trkpt lat="31.7701400" lon="35.1374000">
<ele>496.730011</ele>
<time>2025-05-21T10:17:06.266Z</time>
</trkpt>
<trkpt lat="31.7701400" lon="35.1377200">
<ele>496.009979</ele>
<time>2025-05-21T10:17:06.266Z</time>
</trkpt>
<trkpt lat="31.7701300" lon="35.1378800">
<ele>496.109985</ele>
<time>2025-05-21T10:17:06.266Z</time>
</trkpt>
<trkpt lat="31.7701000" lon="35.1379700">
<ele>495.970001</ele>
<time>2025-05-21T10:17:06.266Z</time>
</trkpt>
<trkpt lat="31.7700300" lon="35.1380800">
<ele>495.700012</ele>
<time>2025-05-21T10:17:06.266Z</time>
</trkpt>
<trkpt lat="31.7699600" lon="35.1381400">
<ele>496.369995</ele>
<time>2025-05-21T10:17:06.266Z</time>
</trkpt>
<trkpt lat="31.7697200" lon="35.1383000">
<ele>497.880005</ele>
<time>2025-05-21T10:17:06.266Z</time>
</trkpt>
<trkpt lat="31.7693600" lon="35.1386000">
<ele>498.650024</ele>
<time>2025-05-21T10:17:06.266Z</time>
</trkpt>
<trkpt lat="31.7690800" lon="35.1389300">
<ele>502.410004</ele>
<time>2025-05-21T10:17:06.266Z</time>
</trkpt>
<trkpt lat="31.7690000" lon="35.1390400">
<ele>503.509979</ele>
<time>2025-05-21T10:17:06.266Z</time>
</trkpt>
<trkpt lat="31.7689500" lon="35.1391400">
<ele>503.809998</ele>
<time>2025-05-21T10:17:06.266Z</time>
</trkpt>
<trkpt lat="31.7688900" lon="35.1393400">
<ele>503.369995</ele>
<time>2025-05-21T10:17:06.266Z</time>
</trkpt>
<trkpt lat="31.7688700" lon="35.1396500">
<ele>503.499969</ele>
<time>2025-05-21T10:17:06.266Z</time>
</trkpt>
<trkpt lat="31.7688700" lon="35.1398800">
<ele>503.110016</ele>
<time>2025-05-21T10:17:06.266Z</time>
</trkpt>
<trkpt lat="31.7688700" lon="35.1403200">
<ele>502.750000</ele>
<time>2025-05-21T10:17:06.266Z</time>
</trkpt>
<trkpt lat="31.7688800" lon="35.1406200">
<ele>501.480011</ele>
<time>2025-05-21T10:17:06.266Z</time>
</trkpt>
<trkpt lat="31.7689200" lon="35.1414500">
<ele>501.799988</ele>
<time>2025-05-21T10:17:06.266Z</time>
</trkpt>
<trkpt lat="31.7689100" lon="35.1417500">
<ele>502.760010</ele>
<time>2025-05-21T10:17:06.266Z</time>
</trkpt>
<trkpt lat="31.7688900" lon="35.1423500">
<ele>507.940002</ele>
<time>2025-05-21T10:17:06.266Z</time>
</trkpt>
<trkpt lat="31.7688900" lon="35.1427400">
<ele>512.470032</ele>
<time>2025-05-21T10:17:06.266Z</time>
</trkpt>
<trkpt lat="31.7689000" lon="35.1428700">
<ele>514.700012</ele>
<time>2025-05-21T10:17:06.266Z</time>
</trkpt>
<trkpt lat="31.7689200" lon="35.1429700">
<ele>516.330017</ele>
<time>2025-05-21T10:17:06.266Z</time>
</trkpt>
<trkpt lat="31.7690700" lon="35.1432100">
<ele>514.739990</ele>
<time>2025-05-21T10:17:06.266Z</time>
</trkpt>
<trkpt lat="31.7692600" lon="35.1434000">
<ele>517.349976</ele>
<time>2025-05-21T10:17:06.266Z</time>
</trkpt>
<trkpt lat="31.7697100" lon="35.1436600">
<ele>530.510010</ele>
<time>2025-05-21T10:17:06.266Z</time>
</trkpt>
<trkpt lat="31.7706300" lon="35.1441200">
<ele>527.609985</ele>
<time>2025-05-21T10:17:06.266Z</time>
</trkpt>
<trkpt lat="31.7710300" lon="35.1444000">
<ele>516.840027</ele>
<time>2025-05-21T10:17:06.266Z</time>
</trkpt>
<trkpt lat="31.7712800" lon="35.1446300">
<ele>516.619995</ele>
<time>2025-05-21T10:17:06.266Z</time>
</trkpt>
<trkpt lat="31.7713600" lon="35.1447400">
<ele>515.789978</ele>
<time>2025-05-21T10:17:06.266Z</time>
</trkpt>
<trkpt lat="31.7714200" lon="35.1448700">
<ele>515.770020</ele>
<time>2025-05-21T10:17:06.266Z</time>
</trkpt>
<trkpt lat="31.7714400" lon="35.1449500">
<ele>515.559998</ele>
<time>2025-05-21T10:17:06.266Z</time>
</trkpt>
<trkpt lat="31.7714900" lon="35.1453900">
<ele>513.880005</ele>
<time>2025-05-21T10:17:06.266Z</time>
</trkpt>
<trkpt lat="31.7715000" lon="35.1456600">
<ele>514.650024</ele>
<time>2025-05-21T10:17:06.266Z</time>
</trkpt>
<trkpt lat="31.7715900" lon="35.1462600">
<ele>516.380005</ele>
<time>2025-05-21T10:17:06.266Z</time>
</trkpt>
<trkpt lat="31.7717000" lon="35.1465600">
<ele>516.869995</ele>
<time>2025-05-21T10:17:06.266Z</time>
</trkpt>
<trkpt lat="31.7717900" lon="35.1467400">
<ele>517.910034</ele>
<time>2025-05-21T10:17:06.266Z</time>
</trkpt>
<trkpt lat="31.7719200" lon="35.1469400">
<ele>517.359985</ele>
<time>2025-05-21T10:17:06.266Z</time>
</trkpt>
<trkpt lat="31.7720900" lon="35.1471400">
<ele>519.890015</ele>
<time>2025-05-21T10:17:06.266Z</time>
</trkpt>
<trkpt lat="31.7729600" lon="35.1479600">
<ele>518.340027</ele>
<time>2025-05-21T10:17:06.266Z</time>
</trkpt>
<trkpt lat="31.7733600" lon="35.1483200">
<ele>521.700012</ele>
<time>2025-05-21T10:17:06.266Z</time>
</trkpt>
<trkpt lat="31.7734200" lon="35.1483700">
<ele>521.989990</ele>
<time>2025-05-21T10:17:06.266Z</time>
</trkpt>
<trkpt lat="31.7734800" lon="35.1484900">
<ele>521.090027</ele>
<time>2025-05-21T10:17:06.266Z</time>
</trkpt>
<trkpt lat="31.7735400" lon="35.1486700">
<ele>519.450012</ele>
<time>2025-05-21T10:17:06.266Z</time>
</trkpt>
<trkpt lat="31.7736700" lon="35.1495400">
<ele>517.839966</ele>
<time>2025-05-21T10:17:06.266Z</time>
</trkpt>
<trkpt lat="31.7737100" lon="35.1496400">
<ele>518.669983</ele>
<time>2025-05-21T10:17:06.266Z</time>
</trkpt>
<trkpt lat="31.7737700" lon="35.1497400">
<ele>519.720032</ele>
<time>2025-05-21T10:17:06.266Z</time>
</trkpt>
<trkpt lat="31.7739600" lon="35.1500500">
<ele>521.760010</ele>
<time>2025-05-21T10:17:06.266Z</time>
</trkpt>
<trkpt lat="31.7740100" lon="35.1502000">
<ele>521.929993</ele>
<time>2025-05-21T10:17:06.266Z</time>
</trkpt>
<trkpt lat="31.7740100" lon="35.1502700">
<ele>521.649963</ele>
<time>2025-05-21T10:17:06.266Z</time>
</trkpt>
<trkpt lat="31.7740100" lon="35.1503100">
<ele>521.619995</ele>
<time>2025-05-21T10:17:06.266Z</time>
</trkpt>
<trkpt lat="31.7740000" lon="35.1503600">
<ele>521.399963</ele>
<time>2025-05-21T10:17:06.266Z</time>
</trkpt>
<trkpt lat="31.7739400" lon="35.1504200">
<ele>520.100037</ele>
<time>2025-05-21T10:17:06.266Z</time>
</trkpt>
<trkpt lat="31.7737700" lon="35.1505700">
<ele>516.929993</ele>
<time>2025-05-21T10:17:06.266Z</time>
</trkpt>
<trkpt lat="31.7736600" lon="35.1507000">
<ele>515.829956</ele>
<time>2025-05-21T10:17:06.266Z</time>
</trkpt>
<trkpt lat="31.7736000" lon="35.1508000">
<ele>515.770020</ele>
<time>2025-05-21T10:17:06.266Z</time>
</trkpt>
<trkpt lat="31.7735900" lon="35.1509200">
<ele>516.890015</ele>
<time>2025-05-21T10:17:06.266Z</time>
</trkpt>
<trkpt lat="31.7735800" lon="35.1510700">
<ele>518.369995</ele>
<time>2025-05-21T10:17:06.266Z</time>
</trkpt>
<trkpt lat="31.7735800" lon="35.1512800">
<ele>519.989990</ele>
<time>2025-05-21T10:17:06.266Z</time>
</trkpt>
<trkpt lat="31.7735800" lon="35.1515000">
<ele>520.869995</ele>
<time>2025-05-21T10:17:06.266Z</time>
</trkpt>
<trkpt lat="31.7735700" lon="35.1515600">
<ele>520.890015</ele>
<time>2025-05-21T10:17:06.266Z</time>
</trkpt>
<trkpt lat="31.7735700" lon="35.1520700">
<ele>519.830017</ele>
<time>2025-05-21T10:17:06.266Z</time>
</trkpt>
<trkpt lat="31.7735500" lon="35.1522600">
<ele>520.359985</ele>
<time>2025-05-21T10:17:06.266Z</time>
</trkpt>
<trkpt lat="31.7734900" lon="35.1524300">
<ele>520.780029</ele>
<time>2025-05-21T10:17:06.266Z</time>
</trkpt>
<trkpt lat="31.7734000" lon="35.1526300">
<ele>520.969971</ele>
<time>2025-05-21T10:17:06.266Z</time>
</trkpt>
<trkpt lat="31.7733100" lon="35.1528700">
<ele>519.970032</ele>
<time>2025-05-21T10:17:06.266Z</time>
</trkpt>
<trkpt lat="31.7732200" lon="35.1530300">
<ele>519.630005</ele>
<time>2025-05-21T10:17:06.266Z</time>
</trkpt>
<trkpt lat="31.7728500" lon="35.1534300">
<ele>518.520020</ele>
<time>2025-05-21T10:17:06.266Z</time>
</trkpt>
<trkpt lat="31.7724900" lon="35.1536400">
<ele>519.190002</ele>
<time>2025-05-21T10:17:06.266Z</time>
</trkpt>
<trkpt lat="31.7722500" lon="35.1536700">
<ele>519.479980</ele>
<time>2025-05-21T10:17:06.266Z</time>
</trkpt>
<trkpt lat="31.7712600" lon="35.1536800">
<ele>536.190002</ele>
<time>2025-05-21T10:17:06.266Z</time>
</trkpt>
<trkpt lat="31.7709100" lon="35.1536900">
<ele>536.349976</ele>
<time>2025-05-21T10:17:06.266Z</time>
</trkpt>
<trkpt lat="31.7704200" lon="35.1537600">
<ele>534.230042</ele>
<time>2025-05-21T10:17:06.266Z</time>
</trkpt>
<trkpt lat="31.7699100" lon="35.1539800">
<ele>541.190002</ele>
<time>2025-05-21T10:17:06.266Z</time>
</trkpt>
<trkpt lat="31.7698900" lon="35.1539400">
<ele>541.720032</ele>
<time>2025-05-21T10:17:06.266Z</time>
</trkpt>
<trkpt lat="31.7698800" lon="35.1538300">
<ele>542.489990</ele>
<time>2025-05-21T10:17:06.266Z</time>
</trkpt>
<trkpt lat="31.7698800" lon="35.1536300">
<ele>543.619995</ele>
<time>2025-05-21T10:17:06.266Z</time>
</trkpt>
<trkpt lat="31.7698900" lon="35.1535200">
<ele>543.710022</ele>
<time>2025-05-21T10:17:06.266Z</time>
</trkpt>
<trkpt lat="31.7699000" lon="35.1534400">
<ele>543.659973</ele>
<time>2025-05-21T10:17:06.266Z</time>
</trkpt>
<trkpt lat="31.7699500" lon="35.1533200">
<ele>543.029968</ele>
<time>2025-05-21T10:17:06.266Z</time>
</trkpt>
<trkpt lat="31.7700100" lon="35.1532300">
<ele>543.049988</ele>
<time>2025-05-21T10:17:06.266Z</time>
</trkpt>
<trkpt lat="31.7700100" lon="35.1532300">
<ele>543.049988</ele>
<time>2025-05-21T10:17:06.266Z</time>
</trkpt>
<trkpt lat="31.7700100" lon="35.1532200">
<ele>543.159973</ele>
<time>2025-05-21T10:17:06.266Z</time>
</trkpt>
<trkpt lat="31.7700200" lon="35.1532100">
<ele>543.210022</ele>
<time>2025-05-21T10:17:06.266Z</time>
</trkpt>
<trkpt lat="31.7700900" lon="35.1531000">
<ele>544.359985</ele>
<time>2025-05-21T10:17:06.266Z</time>
</trkpt>
<trkpt lat="31.7701200" lon="35.1530800">
<ele>544.619995</ele>
<time>2025-05-21T10:17:06.266Z</time>
</trkpt>
<trkpt lat="31.7700000" lon="35.1529100">
<ele>545.520020</ele>
<time>2025-05-21T10:17:06.266Z</time>
</trkpt>
<trkpt lat="31.7698700" lon="35.1528400">
<ele>546.450012</ele>
<time>2025-05-21T10:17:06.266Z</time>
</trkpt>
<trkpt lat="31.7700500" lon="35.1526700">
<ele>547.109985</ele>
<time>2025-05-21T10:17:06.266Z</time>
</trkpt>
<trkpt lat="31.7700900" lon="35.1526000">
<ele>547.940002</ele>
<time>2025-05-21T10:17:06.266Z</time>
</trkpt>
<trkpt lat="31.7703700" lon="35.1523200">
<ele>554.869995</ele>
<time>2025-05-21T10:17:06.266Z</time>
</trkpt>
<trkpt lat="31.7705200" lon="35.1520900">
<ele>559.190002</ele>
<time>2025-05-21T10:17:06.266Z</time>
</trkpt>
<trkpt lat="31.7709800" lon="35.1519800">
<ele>560.040039</ele>
<time>2025-05-21T10:17:06.266Z</time>
</trkpt>
<trkpt lat="31.7712800" lon="35.1518400">
<ele>563.820007</ele>
<time>2025-05-21T10:17:06.266Z</time>
</trkpt>
<trkpt lat="31.7713600" lon="35.1517500">
<ele>563.919983</ele>
<time>2025-05-21T10:17:06.266Z</time>
</trkpt>
<trkpt lat="31.7713700" lon="35.1516600">
<ele>564.299988</ele>
<time>2025-05-21T10:17:06.266Z</time>
</trkpt>
<trkpt lat="31.7713700" lon="35.1516200">
<ele>564.840027</ele>
<time>2025-05-21T10:17:06.266Z</time>
</trkpt>
<trkpt lat="31.7713300" lon="35.1515600">
<ele>565.929993</ele>
<time>2025-05-21T10:17:06.266Z</time>
</trkpt>
<trkpt lat="31.7710800" lon="35.1514800">
<ele>567.489990</ele>
<time>2025-05-21T10:17:06.266Z</time>
</trkpt>
<trkpt lat="31.7710500" lon="35.1514400">
<ele>567.609985</ele>
<time>2025-05-21T10:17:06.266Z</time>
</trkpt>
<trkpt lat="31.7710500" lon="35.1514400">
<ele>567.609985</ele>
<time>2025-05-21T10:17:06.266Z</time>
</trkpt>
<trkpt lat="31.7710100" lon="35.1513900">
<ele>567.989990</ele>
<time>2025-05-21T10:17:06.266Z</time>
</trkpt>
<trkpt lat="31.7709700" lon="35.1512800">
<ele>569.179993</ele>
<time>2025-05-21T10:17:06.266Z</time>
</trkpt>
<trkpt lat="31.7709800" lon="35.1509800">
<ele>573.109985</ele>
<time>2025-05-21T10:17:06.266Z</time>
</trkpt>
<trkpt lat="31.7709800" lon="35.1509700">
<ele>573.270020</ele>
<time>2025-05-21T10:17:06.266Z</time>
</trkpt>
<trkpt lat="31.7709800" lon="35.1509700">
<ele>573.270020</ele>
<time>2025-05-21T10:17:06.266Z</time>
</trkpt>
<trkpt lat="31.7709700" lon="35.1509700">
<ele>573.289978</ele>
<time>2025-05-21T10:17:06.266Z</time>
</trkpt>
<trkpt lat="31.7709500" lon="35.1508500">
<ele>575.309998</ele>
<time>2025-05-21T10:17:06.266Z</time>
</trkpt>
<trkpt lat="31.7709000" lon="35.1507500">
<ele>577.119995</ele>
<time>2025-05-21T10:17:06.266Z</time>
</trkpt>
<trkpt lat="31.7708200" lon="35.1506500">
<ele>579.220032</ele>
<time>2025-05-21T10:17:06.266Z</time>
</trkpt>
<trkpt lat="31.7707600" lon="35.1506200">
<ele>579.369995</ele>
<time>2025-05-21T10:17:06.266Z</time>
</trkpt>
<trkpt lat="31.7706900" lon="35.1506100">
<ele>579.090027</ele>
<time>2025-05-21T10:17:06.266Z</time>
</trkpt>
<trkpt lat="31.7705200" lon="35.1506500">
<ele>577.729980</ele>
<time>2025-05-21T10:17:06.266Z</time>
</trkpt>
<trkpt lat="31.7704700" lon="35.1503800">
<ele>579.630005</ele>
<time>2025-05-21T10:17:06.266Z</time>
</trkpt>
<trkpt lat="31.7704600" lon="35.1500900">
<ele>580.469971</ele>
<time>2025-05-21T10:17:06.266Z</time>
</trkpt>
<trkpt lat="31.7704100" lon="35.1500300">
<ele>580.929993</ele>
<time>2025-05-21T10:17:06.266Z</time>
</trkpt>
<trkpt lat="31.7704200" lon="35.1499600">
<ele>580.980042</ele>
<time>2025-05-21T10:17:06.266Z</time>
</trkpt>
<trkpt lat="31.7704300" lon="35.1498800">
<ele>580.899963</ele>
<time>2025-05-21T10:17:06.266Z</time>
</trkpt>
<trkpt lat="31.7704300" lon="35.1498800">
<ele>580.899963</ele>
<time>2025-05-21T10:17:06.266Z</time>
</trkpt>
<trkpt lat="31.7704200" lon="35.1498300">
<ele>580.980042</ele>
<time>2025-05-21T10:17:06.266Z</time>
</trkpt>
<trkpt lat="31.7704000" lon="35.1497900">
<ele>581.119995</ele>
<time>2025-05-21T10:17:06.266Z</time>
</trkpt>
<trkpt lat="31.7703500" lon="35.1497600">
<ele>581.479980</ele>
<time>2025-05-21T10:17:06.266Z</time>
</trkpt>
<trkpt lat="31.7702400" lon="35.1495500">
<ele>581.679993</ele>
<time>2025-05-21T10:17:06.266Z</time>
</trkpt>
<trkpt lat="31.7699800" lon="35.1490000">
<ele>584.650024</ele>
<time>2025-05-21T10:17:06.266Z</time>
</trkpt>
<trkpt lat="31.7699600" lon="35.1484300">
<ele>584.809998</ele>
<time>2025-05-21T10:17:06.266Z</time>
</trkpt>
<trkpt lat="31.7699700" lon="35.1480900">
<ele>586.410034</ele>
<time>2025-05-21T10:17:06.266Z</time>
</trkpt>
<trkpt lat="31.7699500" lon="35.1476400">
<ele>588.260010</ele>
<time>2025-05-21T10:17:06.266Z</time>
</trkpt>
<trkpt lat="31.7699000" lon="35.1474000">
<ele>589.390015</ele>
<time>2025-05-21T10:17:06.266Z</time>
</trkpt>
<trkpt lat="31.7697700" lon="35.1470400">
<ele>592.510010</ele>
<time>2025-05-21T10:17:06.266Z</time>
</trkpt>
<trkpt lat="31.7696600" lon="35.1469100">
<ele>594.580017</ele>
<time>2025-05-21T10:17:06.266Z</time>
</trkpt>
<trkpt lat="31.7696700" lon="35.1469000">
<ele>594.229980</ele>
<time>2025-05-21T10:17:06.266Z</time>
</trkpt>
<trkpt lat="31.7696700" lon="35.1469000">
<ele>594.229980</ele>
<time>2025-05-21T10:17:06.266Z</time>
</trkpt>
<trkpt lat="31.7695300" lon="35.1467400">
<ele>595.309998</ele>
<time>2025-05-21T10:17:06.266Z</time>
</trkpt>
<trkpt lat="31.7688800" lon="35.1458500">
<ele>598.309998</ele>
<time>2025-05-21T10:17:06.266Z</time>
</trkpt>
<trkpt lat="31.7687500" lon="35.1457200">
<ele>596.140015</ele>
<time>2025-05-21T10:17:06.266Z</time>
</trkpt>
<trkpt lat="31.7684400" lon="35.1454900">
<ele>592.969971</ele>
<time>2025-05-21T10:17:06.266Z</time>
</trkpt>
<trkpt lat="31.7682400" lon="35.1453600">
<ele>592.150024</ele>
<time>2025-05-21T10:17:06.266Z</time>
</trkpt>
<trkpt lat="31.7677300" lon="35.1451700">
<ele>592.950012</ele>
<time>2025-05-21T10:17:06.266Z</time>
</trkpt>
<trkpt lat="31.7673500" lon="35.1450100">
<ele>598.140015</ele>
<time>2025-05-21T10:17:06.266Z</time>
</trkpt>
<trkpt lat="31.7669200" lon="35.1447300">
<ele>598.919983</ele>
<time>2025-05-21T10:17:06.266Z</time>
</trkpt>
<trkpt lat="31.7667000" lon="35.1444400">
<ele>595.029968</ele>
<time>2025-05-21T10:17:06.266Z</time>
</trkpt>
<trkpt lat="31.7665000" lon="35.1441600">
<ele>593.340027</ele>
<time>2025-05-21T10:17:06.266Z</time>
</trkpt>
<trkpt lat="31.7664800" lon="35.1440600">
<ele>593.149963</ele>
<time>2025-05-21T10:17:06.266Z</time>
</trkpt>
<trkpt lat="31.7664800" lon="35.1438300">
<ele>592.000000</ele>
<time>2025-05-21T10:17:06.266Z</time>
</trkpt>
<trkpt lat="31.7664600" lon="35.1433000">
<ele>594.429993</ele>
<time>2025-05-21T10:17:06.266Z</time>
</trkpt>
<trkpt lat="31.7664700" lon="35.1421700">
<ele>595.589966</ele>
<time>2025-05-21T10:17:06.266Z</time>
</trkpt>
<trkpt lat="31.7665200" lon="35.1416300">
<ele>597.160034</ele>
<time>2025-05-21T10:17:06.266Z</time>
</trkpt>
<trkpt lat="31.7668200" lon="35.1406700">
<ele>600.450012</ele>
<time>2025-05-21T10:17:06.266Z</time>
</trkpt>
<trkpt lat="31.7668300" lon="35.1404400">
<ele>598.809998</ele>
<time>2025-05-21T10:17:06.266Z</time>
</trkpt>
<trkpt lat="31.7668300" lon="35.1402000">
<ele>597.840027</ele>
<time>2025-05-21T10:17:06.266Z</time>
</trkpt>
<trkpt lat="31.7667100" lon="35.1395400">
<ele>600.419983</ele>
<time>2025-05-21T10:17:06.266Z</time>
</trkpt>
<trkpt lat="31.7664200" lon="35.1390200">
<ele>597.570007</ele>
<time>2025-05-21T10:17:06.266Z</time>
</trkpt>
<trkpt lat="31.7662700" lon="35.1388900">
<ele>595.450012</ele>
<time>2025-05-21T10:17:06.266Z</time>
</trkpt>
<trkpt lat="31.7657200" lon="35.1387800">
<ele>594.190002</ele>
<time>2025-05-21T10:17:06.266Z</time>
</trkpt>
<trkpt lat="31.7651800" lon="35.1388000">
<ele>584.589966</ele>
<time>2025-05-21T10:17:06.266Z</time>
</trkpt>
<trkpt lat="31.7645400" lon="35.1388800">
<ele>573.530029</ele>
<time>2025-05-21T10:17:06.266Z</time>
</trkpt>
<trkpt lat="31.7643500" lon="35.1389200">
<ele>574.679993</ele>
<time>2025-05-21T10:17:06.266Z</time>
</trkpt>
<trkpt lat="31.7640600" lon="35.1389800">
<ele>578.429993</ele>
<time>2025-05-21T10:17:06.266Z</time>
</trkpt>
<trkpt lat="31.7635500" lon="35.1390200">
<ele>578.109985</ele>
<time>2025-05-21T10:17:06.266Z</time>
</trkpt>
<trkpt lat="31.7635300" lon="35.1390900">
<ele>578.940002</ele>
<time>2025-05-21T10:17:06.266Z</time>
</trkpt>
<trkpt lat="31.7634200" lon="35.1391400">
<ele>578.489990</ele>
<time>2025-05-21T10:17:06.266Z</time>
</trkpt>
<trkpt lat="31.7631800" lon="35.1391700">
<ele>580.789978</ele>
<time>2025-05-21T10:17:06.266Z</time>
</trkpt>
<trkpt lat="31.7626700" lon="35.1393800">
<ele>580.320007</ele>
<time>2025-05-21T10:17:06.266Z</time>
</trkpt>
<trkpt lat="31.7625500" lon="35.1394800">
<ele>581.580017</ele>
<time>2025-05-21T10:17:06.266Z</time>
</trkpt>
<trkpt lat="31.7624600" lon="35.1396000">
<ele>584.140015</ele>
<time>2025-05-21T10:17:06.266Z</time>
</trkpt>
<trkpt lat="31.7624100" lon="35.1397500">
<ele>586.869995</ele>
<time>2025-05-21T10:17:06.266Z</time>
</trkpt>
<trkpt lat="31.7623900" lon="35.1399600">
<ele>589.929993</ele>
<time>2025-05-21T10:17:06.266Z</time>
</trkpt>
<trkpt lat="31.7624000" lon="35.1402000">
<ele>592.020020</ele>
<time>2025-05-21T10:17:06.266Z</time>
</trkpt>
<trkpt lat="31.7626700" lon="35.1425700">
<ele>610.109985</ele>
<time>2025-05-21T10:17:06.266Z</time>
</trkpt>
<trkpt lat="31.7627200" lon="35.1428400">
<ele>613.590027</ele>
<time>2025-05-21T10:17:06.266Z</time>
</trkpt>
<trkpt lat="31.7627500" lon="35.1430100">
<ele>615.919983</ele>
<time>2025-05-21T10:17:06.266Z</time>
</trkpt>
<trkpt lat="31.7628600" lon="35.1433900">
<ele>620.159973</ele>
<time>2025-05-21T10:17:06.266Z</time>
</trkpt>
<trkpt lat="31.7635800" lon="35.1448700">
<ele>633.669983</ele>
<time>2025-05-21T10:17:06.266Z</time>
</trkpt>
<trkpt lat="31.7636400" lon="35.1449400">
<ele>635.150024</ele>
<time>2025-05-21T10:17:06.266Z</time>
</trkpt>
<trkpt lat="31.7636900" lon="35.1449900">
<ele>636.609985</ele>
<time>2025-05-21T10:17:06.266Z</time>
</trkpt>
<trkpt lat="31.7637000" lon="35.1450900">
<ele>638.110046</ele>
<time>2025-05-21T10:17:06.266Z</time>
</trkpt>
<trkpt lat="31.7637200" lon="35.1452100">
<ele>640.080017</ele>
<time>2025-05-21T10:17:06.266Z</time>
</trkpt>
<trkpt lat="31.7637400" lon="35.1452500">
<ele>640.969971</ele>
<time>2025-05-21T10:17:06.266Z</time>
</trkpt>
<trkpt lat="31.7637900" lon="35.1454600">
<ele>642.690002</ele>
<time>2025-05-21T10:17:06.266Z</time>
</trkpt>
<trkpt lat="31.7638300" lon="35.1456300">
<ele>643.419983</ele>
<time>2025-05-21T10:17:06.266Z</time>
</trkpt>
<trkpt lat="31.7638400" lon="35.1457000">
<ele>643.559998</ele>
<time>2025-05-21T10:17:06.266Z</time>
</trkpt>
<trkpt lat="31.7638500" lon="35.1457900">
<ele>643.700012</ele>
<time>2025-05-21T10:17:06.266Z</time>
</trkpt>
<trkpt lat="31.7638600" lon="35.1459500">
<ele>644.260010</ele>
<time>2025-05-21T10:17:06.266Z</time>
</trkpt>
<trkpt lat="31.7638600" lon="35.1461900">
<ele>645.970032</ele>
<time>2025-05-21T10:17:06.266Z</time>
</trkpt>
<trkpt lat="31.7638500" lon="35.1462600">
<ele>646.849976</ele>
<time>2025-05-21T10:17:06.266Z</time>
</trkpt>
<trkpt lat="31.7638400" lon="35.1463400">
<ele>647.830017</ele>
<time>2025-05-21T10:17:06.266Z</time>
</trkpt>
<trkpt lat="31.7638100" lon="35.1465000">
<ele>650.889954</ele>
<time>2025-05-21T10:17:06.266Z</time>
</trkpt>
<trkpt lat="31.7637600" lon="35.1467500">
<ele>654.970032</ele>
<time>2025-05-21T10:17:06.266Z</time>
</trkpt>
<trkpt lat="31.7637000" lon="35.1469000">
<ele>655.299988</ele>
<time>2025-05-21T10:17:06.266Z</time>
</trkpt>
<trkpt lat="31.7634800" lon="35.1475300">
<ele>655.500000</ele>
<time>2025-05-21T10:17:06.266Z</time>
</trkpt>
<trkpt lat="31.7633600" lon="35.1478100">
<ele>653.300049</ele>
<time>2025-05-21T10:17:06.266Z</time>
</trkpt>
<trkpt lat="31.7633600" lon="35.1478100">
<ele>653.300049</ele>
<time>2025-05-21T10:17:06.266Z</time>
</trkpt>
<trkpt lat="31.7633400" lon="35.1478000">
<ele>652.479980</ele>
<time>2025-05-21T10:17:06.266Z</time>
</trkpt>
<trkpt lat="31.7631700" lon="35.1481900">
<ele>654.079956</ele>
<time>2025-05-21T10:17:06.266Z</time>
</trkpt>
<trkpt lat="31.7629700" lon="35.1486000">
<ele>659.739990</ele>
<time>2025-05-21T10:17:06.266Z</time>
</trkpt>
<trkpt lat="31.7629000" lon="35.1487300">
<ele>663.200012</ele>
<time>2025-05-21T10:17:06.266Z</time>
</trkpt>
<trkpt lat="31.7627900" lon="35.1489300">
<ele>667.270020</ele>
<time>2025-05-21T10:17:06.266Z</time>
</trkpt>
<trkpt lat="31.7627500" lon="35.1489500">
<ele>667.979980</ele>
<time>2025-05-21T10:17:06.266Z</time>
</trkpt>
<trkpt lat="31.7626500" lon="35.1489300">
<ele>669.729980</ele>
<time>2025-05-21T10:17:06.266Z</time>
</trkpt>
<trkpt lat="31.7626300" lon="35.1489100">
<ele>669.889954</ele>
<time>2025-05-21T10:17:06.266Z</time>
</trkpt>
<trkpt lat="31.7625100" lon="35.1488100">
<ele>670.669983</ele>
<time>2025-05-21T10:17:06.266Z</time>
</trkpt>
<trkpt lat="31.7622700" lon="35.1485100">
<ele>673.169983</ele>
<time>2025-05-21T10:17:06.266Z</time>
</trkpt>
<trkpt lat="31.7619800" lon="35.1480900">
<ele>673.619995</ele>
<time>2025-05-21T10:17:06.266Z</time>
</trkpt>
<trkpt lat="31.7618000" lon="35.1474200">
<ele>672.750000</ele>
<time>2025-05-21T10:17:06.266Z</time>
</trkpt>
<trkpt lat="31.7618000" lon="35.1474200">
<ele>672.750000</ele>
<time>2025-05-21T10:17:06.266Z</time>
</trkpt>
<trkpt lat="31.7616600" lon="35.1469400">
<ele>674.020020</ele>
<time>2025-05-21T10:17:06.266Z</time>
</trkpt>
<trkpt lat="31.7615000" lon="35.1467500">
<ele>675.480042</ele>
<time>2025-05-21T10:17:06.266Z</time>
</trkpt>
<trkpt lat="31.7613600" lon="35.1466300">
<ele>677.280029</ele>
<time>2025-05-21T10:17:06.266Z</time>
</trkpt>
<trkpt lat="31.7611200" lon="35.1465400">
<ele>676.080017</ele>
<time>2025-05-21T10:17:06.266Z</time>
</trkpt>
<trkpt lat="31.7608400" lon="35.1465600">
<ele>671.730042</ele>
<time>2025-05-21T10:17:06.266Z</time>
</trkpt>
<trkpt lat="31.7604200" lon="35.1467300">
<ele>663.799988</ele>
<time>2025-05-21T10:17:06.266Z</time>
</trkpt>
<trkpt lat="31.7600500" lon="35.1469000">
<ele>661.640015</ele>
<time>2025-05-21T10:17:06.266Z</time>
</trkpt>
<trkpt lat="31.7600500" lon="35.1469000">
<ele>661.640015</ele>
<time>2025-05-21T10:17:06.266Z</time>
</trkpt>
<trkpt lat="31.7600500" lon="35.1469000">
<ele>661.640015</ele>
<time>2025-05-21T10:17:06.266Z</time>
</trkpt>
<trkpt lat="31.7597000" lon="35.1470600">
<ele>655.100037</ele>
<time>2025-05-21T10:17:06.266Z</time>
</trkpt>
<trkpt lat="31.7594500" lon="35.1471300">
<ele>652.399963</ele>
<time>2025-05-21T10:17:06.266Z</time>
</trkpt>
<trkpt lat="31.7591700" lon="35.1471600">
<ele>661.860046</ele>
<time>2025-05-21T10:17:06.266Z</time>
</trkpt>
<trkpt lat="31.7588800" lon="35.1471200">
<ele>669.779968</ele>
<time>2025-05-21T10:17:06.266Z</time>
</trkpt>
<trkpt lat="31.7587300" lon="35.1470200">
<ele>668.150024</ele>
<time>2025-05-21T10:17:06.266Z</time>
</trkpt>
<trkpt lat="31.7586200" lon="35.1470200">
<ele>668.509949</ele>
<time>2025-05-21T10:17:06.266Z</time>
</trkpt>
<trkpt lat="31.7586100" lon="35.1471600">
<ele>669.570007</ele>
<time>2025-05-21T10:17:06.266Z</time>
</trkpt>
<trkpt lat="31.7585100" lon="35.1472300">
<ele>671.549988</ele>
<time>2025-05-21T10:17:06.266Z</time>
</trkpt>
<trkpt lat="31.7585100" lon="35.1472400">
<ele>671.679993</ele>
<time>2025-05-21T10:17:06.266Z</time>
</trkpt>
<trkpt lat="31.7585100" lon="35.1472400">
<ele>671.679993</ele>
<time>2025-05-21T10:17:06.266Z</time>
</trkpt>
<trkpt lat="31.7582600" lon="35.1474100">
<ele>672.980042</ele>
<time>2025-05-21T10:17:06.266Z</time>
</trkpt>
<trkpt lat="31.7581400" lon="35.1474500">
<ele>672.679993</ele>
<time>2025-05-21T10:17:06.266Z</time>
</trkpt>
<trkpt lat="31.7579900" lon="35.1474200">
<ele>671.600037</ele>
<time>2025-05-21T10:17:06.266Z</time>
</trkpt>
<trkpt lat="31.7579600" lon="35.1473700">
<ele>671.190002</ele>
<time>2025-05-21T10:17:06.266Z</time>
</trkpt>
<trkpt lat="31.7579600" lon="35.1472800">
<ele>670.880005</ele>
<time>2025-05-21T10:17:06.266Z</time>
</trkpt>
<trkpt lat="31.7579600" lon="35.1471900">
<ele>670.959961</ele>
<time>2025-05-21T10:17:06.266Z</time>
</trkpt>
<trkpt lat="31.7579800" lon="35.1471100">
<ele>671.459961</ele>
<time>2025-05-21T10:17:06.266Z</time>
</trkpt>
<trkpt lat="31.7579900" lon="35.1470800">
<ele>671.620056</ele>
<time>2025-05-21T10:17:06.266Z</time>
</trkpt>
<trkpt lat="31.7582300" lon="35.1465700">
<ele>674.700012</ele>
<time>2025-05-21T10:17:06.266Z</time>
</trkpt>
<trkpt lat="31.7585500" lon="35.1459100">
<ele>673.589966</ele>
<time>2025-05-21T10:17:06.266Z</time>
</trkpt>
<trkpt lat="31.7586800" lon="35.1456900">
<ele>672.239990</ele>
<time>2025-05-21T10:17:06.266Z</time>
</trkpt>
<trkpt lat="31.7591900" lon="35.1449700">
<ele>668.369995</ele>
<time>2025-05-21T10:17:06.266Z</time>
</trkpt>
<trkpt lat="31.7592200" lon="35.1449100">
<ele>667.719971</ele>
<time>2025-05-21T10:17:06.266Z</time>
</trkpt>
<trkpt lat="31.7592900" lon="35.1447000">
<ele>667.049988</ele>
<time>2025-05-21T10:17:06.266Z</time>
</trkpt>
<trkpt lat="31.7597900" lon="35.1431700">
<ele>663.209961</ele>
<time>2025-05-21T10:17:06.266Z</time>
</trkpt>
<trkpt lat="31.7600400" lon="35.1424700">
<ele>662.440002</ele>
<time>2025-05-21T10:17:06.266Z</time>
</trkpt>
<trkpt lat="31.7600800" lon="35.1422500">
<ele>661.570007</ele>
<time>2025-05-21T10:17:06.266Z</time>
</trkpt>
<trkpt lat="31.7600900" lon="35.1419400">
<ele>663.790039</ele>
<time>2025-05-21T10:17:06.266Z</time>
</trkpt>
<trkpt lat="31.7600900" lon="35.1416300">
<ele>663.440002</ele>
<time>2025-05-21T10:17:06.266Z</time>
</trkpt>
<trkpt lat="31.7600800" lon="35.1415300">
<ele>662.989990</ele>
<time>2025-05-21T10:17:06.266Z</time>
</trkpt>
<trkpt lat="31.7600100" lon="35.1413800">
<ele>665.299988</ele>
<time>2025-05-21T10:17:06.266Z</time>
</trkpt>
<trkpt lat="31.7597200" lon="35.1409200">
<ele>665.590027</ele>
<time>2025-05-21T10:17:06.266Z</time>
</trkpt>
<trkpt lat="31.7596600" lon="35.1407900">
<ele>664.080017</ele>
<time>2025-05-21T10:17:06.266Z</time>
</trkpt>
<trkpt lat="31.7595900" lon="35.1405100">
<ele>661.489990</ele>
<time>2025-05-21T10:17:06.266Z</time>
</trkpt>
<trkpt lat="31.7595000" lon="35.1403000">
<ele>661.180054</ele>
<time>2025-05-21T10:17:06.266Z</time>
</trkpt>
<trkpt lat="31.7594400" lon="35.1401900">
<ele>661.429993</ele>
<time>2025-05-21T10:17:06.266Z</time>
</trkpt>
<trkpt lat="31.7593000" lon="35.1400400">
<ele>661.919983</ele>
<time>2025-05-21T10:17:06.266Z</time>
</trkpt>
<trkpt lat="31.7592000" lon="35.1399800">
<ele>662.330017</ele>
<time>2025-05-21T10:17:06.266Z</time>
</trkpt>
<trkpt lat="31.7591300" lon="35.1399400">
<ele>662.269958</ele>
<time>2025-05-21T10:17:06.266Z</time>
</trkpt>
<trkpt lat="31.7583600" lon="35.1397800">
<ele>658.919983</ele>
<time>2025-05-21T10:17:06.266Z</time>
</trkpt>
<trkpt lat="31.7583600" lon="35.1397800">
<ele>658.919983</ele>
<time>2025-05-21T10:17:06.266Z</time>
</trkpt>
<trkpt lat="31.7583700" lon="35.1397700">
<ele>658.710022</ele>
<time>2025-05-21T10:17:06.266Z</time>
</trkpt>
<trkpt lat="31.7583200" lon="35.1397600">
<ele>658.690002</ele>
<time>2025-05-21T10:17:06.266Z</time>
</trkpt>
<trkpt lat="31.7582100" lon="35.1397100">
<ele>657.840027</ele>
<time>2025-05-21T10:17:06.266Z</time>
</trkpt>
<trkpt lat="31.7581700" lon="35.1396500">
<ele>657.110046</ele>
<time>2025-05-21T10:17:06.266Z</time>
</trkpt>
<trkpt lat="31.7581500" lon="35.1395500">
<ele>655.929993</ele>
<time>2025-05-21T10:17:06.266Z</time>
</trkpt>
<trkpt lat="31.7581900" lon="35.1394000">
<ele>654.440002</ele>
<time>2025-05-21T10:17:06.266Z</time>
</trkpt>
<trkpt lat="31.7584900" lon="35.1388600">
<ele>652.789978</ele>
<time>2025-05-21T10:17:06.266Z</time>
</trkpt>
<trkpt lat="31.7586100" lon="35.1386400">
<ele>649.340027</ele>
<time>2025-05-21T10:17:06.266Z</time>
</trkpt>
<trkpt lat="31.7587000" lon="35.1383600">
<ele>646.559998</ele>
<time>2025-05-21T10:17:06.266Z</time>
</trkpt>
<trkpt lat="31.7587300" lon="35.1381900">
<ele>645.859985</ele>
<time>2025-05-21T10:17:06.266Z</time>
</trkpt>
<trkpt lat="31.7587600" lon="35.1377400">
<ele>647.510010</ele>
<time>2025-05-21T10:17:06.266Z</time>
</trkpt>
<trkpt lat="31.7587000" lon="35.1373300">
<ele>649.659973</ele>
<time>2025-05-21T10:17:06.266Z</time>
</trkpt>
<trkpt lat="31.7585200" lon="35.1368900">
<ele>653.260010</ele>
<time>2025-05-21T10:17:06.266Z</time>
</trkpt>
<trkpt lat="31.7583000" lon="35.1364200">
<ele>660.320007</ele>
<time>2025-05-21T10:17:06.266Z</time>
</trkpt>
<trkpt lat="31.7580200" lon="35.1358700">
<ele>661.919983</ele>
<time>2025-05-21T10:17:06.266Z</time>
</trkpt>
<trkpt lat="31.7579300" lon="35.1357400">
<ele>660.909973</ele>
<time>2025-05-21T10:17:06.266Z</time>
</trkpt>
<trkpt lat="31.7577500" lon="35.1355800">
<ele>661.190002</ele>
<time>2025-05-21T10:17:06.266Z</time>
</trkpt>
<trkpt lat="31.7575700" lon="35.1354200">
<ele>655.479980</ele>
<time>2025-05-21T10:17:06.266Z</time>
</trkpt>
<trkpt lat="31.7574200" lon="35.1353700">
<ele>651.169983</ele>
<time>2025-05-21T10:17:06.266Z</time>
</trkpt>
<trkpt lat="31.7574200" lon="35.1353700">
<ele>651.169983</ele>
<time>2025-05-21T10:17:06.266Z</time>
</trkpt>
<trkpt lat="31.7573200" lon="35.1353700">
<ele>648.890015</ele>
<time>2025-05-21T10:17:06.266Z</time>
</trkpt>
<trkpt lat="31.7571300" lon="35.1353900">
<ele>643.949951</ele>
<time>2025-05-21T10:17:06.266Z</time>
</trkpt>
<trkpt lat="31.7567900" lon="35.1354700">
<ele>639.990051</ele>
<time>2025-05-21T10:17:06.266Z</time>
</trkpt>
<trkpt lat="31.7561200" lon="35.1356100">
<ele>651.550049</ele>
<time>2025-05-21T10:17:06.266Z</time>
</trkpt>
<trkpt lat="31.7559700" lon="35.1355800">
<ele>653.709961</ele>
<time>2025-05-21T10:17:06.266Z</time>
</trkpt>
<trkpt lat="31.7559100" lon="35.1354700">
<ele>654.790039</ele>
<time>2025-05-21T10:17:06.266Z</time>
</trkpt>
<trkpt lat="31.7558500" lon="35.1353200">
<ele>655.799988</ele>
<time>2025-05-21T10:17:06.266Z</time>
</trkpt>
<trkpt lat="31.7558500" lon="35.1349700">
<ele>661.180054</ele>
<time>2025-05-21T10:17:06.266Z</time>
</trkpt>
<trkpt lat="31.7558500" lon="35.1349700">
<ele>661.180054</ele>
<time>2025-05-21T10:17:06.266Z</time>
</trkpt>
<trkpt lat="31.7558500" lon="35.1349700">
<ele>661.180054</ele>
<time>2025-05-21T10:17:06.266Z</time>
</trkpt>
<trkpt lat="31.7558400" lon="35.1347600">
<ele>663.480042</ele>
<time>2025-05-21T10:17:06.266Z</time>
</trkpt>
<trkpt lat="31.7557900" lon="35.1345700">
<ele>663.790039</ele>
<time>2025-05-21T10:17:06.266Z</time>
</trkpt>
<trkpt lat="31.7557300" lon="35.1344700">
<ele>663.900024</ele>
<time>2025-05-21T10:17:06.266Z</time>
</trkpt>
<trkpt lat="31.7556200" lon="35.1343400">
<ele>664.890015</ele>
<time>2025-05-21T10:17:06.266Z</time>
</trkpt>
<trkpt lat="31.7551900" lon="35.1339700">
<ele>674.479980</ele>
<time>2025-05-21T10:17:06.266Z</time>
</trkpt>
<trkpt lat="31.7551100" lon="35.1339100">
<ele>676.630005</ele>
<time>2025-05-21T10:17:06.266Z</time>
</trkpt>
<trkpt lat="31.7550100" lon="35.1337500">
<ele>677.270020</ele>
<time>2025-05-21T10:17:06.266Z</time>
</trkpt>
<trkpt lat="31.7548500" lon="35.1334100">
<ele>675.260010</ele>
<time>2025-05-21T10:17:06.266Z</time>
</trkpt>
<trkpt lat="31.7547000" lon="35.1327400">
<ele>677.549988</ele>
<time>2025-05-21T10:17:06.266Z</time>
</trkpt>
<trkpt lat="31.7546500" lon="35.1326500">
<ele>678.880005</ele>
<time>2025-05-21T10:17:06.266Z</time>
</trkpt>
<trkpt lat="31.7545000" lon="35.1324500">
<ele>681.900024</ele>
<time>2025-05-21T10:17:06.266Z</time>
</trkpt>
<trkpt lat="31.7544200" lon="35.1323800">
<ele>682.039978</ele>
<time>2025-05-21T10:17:06.266Z</time>
</trkpt>
<trkpt lat="31.7542500" lon="35.1322800">
<ele>682.400024</ele>
<time>2025-05-21T10:17:06.266Z</time>
</trkpt>
<trkpt lat="31.7539600" lon="35.1321700">
<ele>688.389954</ele>
<time>2025-05-21T10:17:06.266Z</time>
</trkpt>
<trkpt lat="31.7530400" lon="35.1318400">
<ele>702.700012</ele>
<time>2025-05-21T10:17:06.266Z</time>
</trkpt>
<trkpt lat="31.7528200" lon="35.1317800">
<ele>706.760010</ele>
<time>2025-05-21T10:17:06.266Z</time>
</trkpt>
<trkpt lat="31.7522100" lon="35.1316700">
<ele>700.079956</ele>
<time>2025-05-21T10:17:06.266Z</time>
</trkpt>
<trkpt lat="31.7521000" lon="35.1316100">
<ele>699.910034</ele>
<time>2025-05-21T10:17:06.266Z</time>
</trkpt>
<trkpt lat="31.7520800" lon="35.1315600">
<ele>699.799988</ele>
<time>2025-05-21T10:17:06.266Z</time>
</trkpt>
<trkpt lat="31.7520800" lon="35.1315100">
<ele>699.710022</ele>
<time>2025-05-21T10:17:06.266Z</time>
</trkpt>
<trkpt lat="31.7520800" lon="35.1314000">
<ele>699.509949</ele>
<time>2025-05-21T10:17:06.266Z</time>
</trkpt>
<trkpt lat="31.7521100" lon="35.1311700">
<ele>701.640015</ele>
<time>2025-05-21T10:17:06.266Z</time>
</trkpt>
<trkpt lat="31.7522100" lon="35.1305300">
<ele>706.739990</ele>
<time>2025-05-21T10:17:06.266Z</time>
</trkpt>
<trkpt lat="31.7522400" lon="35.1304100">
<ele>705.990051</ele>
<time>2025-05-21T10:17:06.266Z</time>
</trkpt>
<trkpt lat="31.7525300" lon="35.1299800">
<ele>710.830017</ele>
<time>2025-05-21T10:17:06.266Z</time>
</trkpt>
<trkpt lat="31.7527400" lon="35.1294700">
<ele>713.669983</ele>
<time>2025-05-21T10:17:06.266Z</time>
</trkpt>
<trkpt lat="31.7527400" lon="35.1292000">
<ele>718.230042</ele>
<time>2025-05-21T10:17:06.266Z</time>
</trkpt>
<trkpt lat="31.7527400" lon="35.1291100">
<ele>719.359985</ele>
<time>2025-05-21T10:17:06.266Z</time>
</trkpt>
<trkpt lat="31.7527100" lon="35.1290200">
<ele>720.200012</ele>
<time>2025-05-21T10:17:06.266Z</time>
</trkpt>
<trkpt lat="31.7526400" lon="35.1288400">
<ele>721.809998</ele>
<time>2025-05-21T10:17:06.266Z</time>
</trkpt>
<trkpt lat="31.7525600" lon="35.1287000">
<ele>722.659973</ele>
<time>2025-05-21T10:17:06.266Z</time>
</trkpt>
<trkpt lat="31.7524000" lon="35.1286100">
<ele>725.070007</ele>
<time>2025-05-21T10:17:06.266Z</time>
</trkpt>
<trkpt lat="31.7523200" lon="35.1285800">
<ele>725.789978</ele>
<time>2025-05-21T10:17:06.266Z</time>
</trkpt>
<trkpt lat="31.7520400" lon="35.1285700">
<ele>728.630005</ele>
<time>2025-05-21T10:17:06.266Z</time>
</trkpt>
<trkpt lat="31.7518600" lon="35.1285500">
<ele>729.469971</ele>
<time>2025-05-21T10:17:06.266Z</time>
</trkpt>
<trkpt lat="31.7518200" lon="35.1285400">
<ele>729.460022</ele>
<time>2025-05-21T10:17:06.266Z</time>
</trkpt>
<trkpt lat="31.7515000" lon="35.1283900">
<ele>731.369995</ele>
<time>2025-05-21T10:17:06.266Z</time>
</trkpt>
<trkpt lat="31.7512700" lon="35.1282100">
<ele>732.400024</ele>
<time>2025-05-21T10:17:06.266Z</time>
</trkpt>
<trkpt lat="31.7510200" lon="35.1280600">
<ele>732.380005</ele>
<time>2025-05-21T10:17:06.266Z</time>
</trkpt>
<trkpt lat="31.7506900" lon="35.1278000">
<ele>726.119995</ele>
<time>2025-05-21T10:17:06.266Z</time>
</trkpt>
<trkpt lat="31.7506300" lon="35.1278000">
<ele>725.619995</ele>
<time>2025-05-21T10:17:06.266Z</time>
</trkpt>
<trkpt lat="31.7505600" lon="35.1278100">
<ele>725.040039</ele>
<time>2025-05-21T10:17:06.266Z</time>
</trkpt>
<trkpt lat="31.7505100" lon="35.1278500">
<ele>724.509949</ele>
<time>2025-05-21T10:17:06.266Z</time>
</trkpt>
<trkpt lat="31.7504700" lon="35.1279400">
<ele>724.080017</ele>
<time>2025-05-21T10:17:06.266Z</time>
</trkpt>
<trkpt lat="31.7503400" lon="35.1284400">
<ele>725.839966</ele>
<time>2025-05-21T10:17:06.266Z</time>
</trkpt>
<trkpt lat="31.7501800" lon="35.1287200">
<ele>725.630005</ele>
<time>2025-05-21T10:17:06.266Z</time>
</trkpt>
<trkpt lat="31.7500500" lon="35.1290200">
<ele>726.790039</ele>
<time>2025-05-21T10:17:06.266Z</time>
</trkpt>
<trkpt lat="31.7498800" lon="35.1295200">
<ele>729.719971</ele>
<time>2025-05-21T10:17:06.266Z</time>
</trkpt>
<trkpt lat="31.7498400" lon="35.1297900">
<ele>729.500000</ele>
<time>2025-05-21T10:17:06.266Z</time>
</trkpt>
<trkpt lat="31.7497300" lon="35.1302600">
<ele>727.109985</ele>
<time>2025-05-21T10:17:06.266Z</time>
</trkpt>
<trkpt lat="31.7496800" lon="35.1303500">
<ele>726.469971</ele>
<time>2025-05-21T10:17:06.266Z</time>
</trkpt>
<trkpt lat="31.7492800" lon="35.1307100">
<ele>723.179993</ele>
<time>2025-05-21T10:17:06.266Z</time>
</trkpt>
<trkpt lat="31.7489900" lon="35.1309300">
<ele>723.660034</ele>
<time>2025-05-21T10:17:06.266Z</time>
</trkpt>
<trkpt lat="31.7488300" lon="35.1310700">
<ele>726.200012</ele>
<time>2025-05-21T10:17:06.266Z</time>
</trkpt>
<trkpt lat="31.7485700" lon="35.1313000">
<ele>727.329956</ele>
<time>2025-05-21T10:17:06.266Z</time>
</trkpt>
<trkpt lat="31.7479800" lon="35.1317400">
<ele>724.700012</ele>
<time>2025-05-21T10:17:06.266Z</time>
</trkpt>
<trkpt lat="31.7478900" lon="35.1318200">
<ele>725.869934</ele>
<time>2025-05-21T10:17:06.266Z</time>
</trkpt>
<trkpt lat="31.7476100" lon="35.1320600">
<ele>726.710022</ele>
<time>2025-05-21T10:17:06.266Z</time>
</trkpt>
<trkpt lat="31.7475300" lon="35.1320900">
<ele>725.630005</ele>
<time>2025-05-21T10:17:06.266Z</time>
</trkpt>
<trkpt lat="31.7474000" lon="35.1320800">
<ele>724.050049</ele>
<time>2025-05-21T10:17:06.266Z</time>
</trkpt>
<trkpt lat="31.7471700" lon="35.1317900">
<ele>715.380066</ele>
<time>2025-05-21T10:17:06.266Z</time>
</trkpt>
<trkpt lat="31.7468200" lon="35.1317800">
<ele>711.409973</ele>
<time>2025-05-21T10:17:06.266Z</time>
</trkpt>
<trkpt lat="31.7464900" lon="35.1318700">
<ele>710.950012</ele>
<time>2025-05-21T10:17:06.266Z</time>
</trkpt>
<trkpt lat="31.7464200" lon="35.1319200">
<ele>711.600037</ele>
<time>2025-05-21T10:17:06.266Z</time>
</trkpt>
<trkpt lat="31.7459300" lon="35.1323700">
<ele>712.289978</ele>
<time>2025-05-21T10:17:06.266Z</time>
</trkpt>
<trkpt lat="31.7458500" lon="35.1329700">
<ele>718.869995</ele>
<time>2025-05-21T10:17:06.266Z</time>
</trkpt>
<trkpt lat="31.7458300" lon="35.1330200">
<ele>719.440002</ele>
<time>2025-05-21T10:17:06.266Z</time>
</trkpt>
<trkpt lat="31.7457100" lon="35.1338200">
<ele>721.890015</ele>
<time>2025-05-21T10:17:06.266Z</time>
</trkpt>
<trkpt lat="31.7457000" lon="35.1341400">
<ele>722.109985</ele>
<time>2025-05-21T10:17:06.266Z</time>
</trkpt>
<trkpt lat="31.7457100" lon="35.1343600">
<ele>722.759949</ele>
<time>2025-05-21T10:17:06.266Z</time>
</trkpt>
<trkpt lat="31.7457700" lon="35.1347400">
<ele>724.789978</ele>
<time>2025-05-21T10:17:06.266Z</time>
</trkpt>
<trkpt lat="31.7458400" lon="35.1349500">
<ele>724.690002</ele>
<time>2025-05-21T10:17:06.266Z</time>
</trkpt>
<trkpt lat="31.7460000" lon="35.1354600">
<ele>724.140015</ele>
<time>2025-05-21T10:17:06.266Z</time>
</trkpt>
<trkpt lat="31.7460000" lon="35.1355000">
<ele>724.080017</ele>
<time>2025-05-21T10:17:06.266Z</time>
</trkpt>
<trkpt lat="31.7460000" lon="35.1356000">
<ele>724.639954</ele>
<time>2025-05-21T10:17:06.266Z</time>
</trkpt>
<trkpt lat="31.7459800" lon="35.1356500">
<ele>724.639954</ele>
<time>2025-05-21T10:17:06.266Z</time>
</trkpt>
<trkpt lat="31.7459200" lon="35.1356800">
<ele>722.909973</ele>
<time>2025-05-21T10:17:06.266Z</time>
</trkpt>
<trkpt lat="31.7457700" lon="35.1356800">
<ele>718.470032</ele>
<time>2025-05-21T10:17:06.266Z</time>
</trkpt>
<trkpt lat="31.7454100" lon="35.1356900">
<ele>711.600037</ele>
<time>2025-05-21T10:17:06.266Z</time>
</trkpt>
<trkpt lat="31.7451500" lon="35.1356800">
<ele>710.480042</ele>
<time>2025-05-21T10:17:06.266Z</time>
</trkpt>
<trkpt lat="31.7451500" lon="35.1356800">
<ele>710.480042</ele>
<time>2025-05-21T10:17:06.266Z</time>
</trkpt>
<trkpt lat="31.7451500" lon="35.1356800">
<ele>710.480042</ele>
<time>2025-05-21T10:17:06.266Z</time>
</trkpt>
<trkpt lat="31.7450800" lon="35.1356700">
<ele>710.820007</ele>
<time>2025-05-21T10:17:06.266Z</time>
</trkpt>
<trkpt lat="31.7448000" lon="35.1356300">
<ele>711.340027</ele>
<time>2025-05-21T10:17:06.266Z</time>
</trkpt>
<trkpt lat="31.7446900" lon="35.1355400">
<ele>709.659973</ele>
<time>2025-05-21T10:17:06.266Z</time>
</trkpt>
<trkpt lat="31.7446200" lon="35.1355000">
<ele>709.109985</ele>
<time>2025-05-21T10:17:06.266Z</time>
</trkpt>
<trkpt lat="31.7442400" lon="35.1354100">
<ele>707.760010</ele>
<time>2025-05-21T10:17:06.266Z</time>
</trkpt>
<trkpt lat="31.7439000" lon="35.1352700">
<ele>706.049988</ele>
<time>2025-05-21T10:17:06.266Z</time>
</trkpt>
<trkpt lat="31.7437800" lon="35.1352000">
<ele>705.659973</ele>
<time>2025-05-21T10:17:06.266Z</time>
</trkpt>
<trkpt lat="31.7433600" lon="35.1348900">
<ele>706.489990</ele>
<time>2025-05-21T10:17:06.266Z</time>
</trkpt>
<trkpt lat="31.7430900" lon="35.1346800">
<ele>713.660034</ele>
<time>2025-05-21T10:17:06.266Z</time>
</trkpt>
<trkpt lat="31.7428700" lon="35.1345200">
<ele>714.580017</ele>
<time>2025-05-21T10:17:06.266Z</time>
</trkpt>
<trkpt lat="31.7428700" lon="35.1345200">
<ele>714.580017</ele>
<time>2025-05-21T10:17:06.266Z</time>
</trkpt>
<trkpt lat="31.7426000" lon="35.1343400">
<ele>713.380005</ele>
<time>2025-05-21T10:17:06.266Z</time>
</trkpt>
<trkpt lat="31.7422400" lon="35.1341300">
<ele>704.580017</ele>
<time>2025-05-21T10:17:06.266Z</time>
</trkpt>
<trkpt lat="31.7415000" lon="35.1338000">
<ele>699.130005</ele>
<time>2025-05-21T10:17:06.266Z</time>
</trkpt>
<trkpt lat="31.7411900" lon="35.1336100">
<ele>698.710022</ele>
<time>2025-05-21T10:17:06.266Z</time>
</trkpt>
<trkpt lat="31.7410600" lon="35.1335000">
<ele>698.669983</ele>
<time>2025-05-21T10:17:06.266Z</time>
</trkpt>
<trkpt lat="31.7407200" lon="35.1331300">
<ele>694.429993</ele>
<time>2025-05-21T10:17:06.266Z</time>
</trkpt>
<trkpt lat="31.7403700" lon="35.1326800">
<ele>689.630005</ele>
<time>2025-05-21T10:17:06.266Z</time>
</trkpt>
<trkpt lat="31.7401600" lon="35.1324600">
<ele>688.270020</ele>
<time>2025-05-21T10:17:06.266Z</time>
</trkpt>
<trkpt lat="31.7400300" lon="35.1322500">
<ele>687.009949</ele>
<time>2025-05-21T10:17:06.266Z</time>
</trkpt>
<trkpt lat="31.7401900" lon="35.1322500">
<ele>686.550049</ele>
<time>2025-05-21T10:17:06.266Z</time>
</trkpt>
<trkpt lat="31.7402900" lon="35.1323000">
<ele>686.719971</ele>
<time>2025-05-21T10:17:06.266Z</time>
</trkpt>
<trkpt lat="31.7411600" lon="35.1329800">
<ele>684.770020</ele>
<time>2025-05-21T10:17:06.266Z</time>
</trkpt>
<trkpt lat="31.7412600" lon="35.1330400">
<ele>684.609985</ele>
<time>2025-05-21T10:17:06.266Z</time>
</trkpt>
<trkpt lat="31.7413600" lon="35.1330900">
<ele>685.580017</ele>
<time>2025-05-21T10:17:06.266Z</time>
</trkpt>
<trkpt lat="31.7416900" lon="35.1332400">
<ele>672.020020</ele>
<time>2025-05-21T10:17:06.266Z</time>
</trkpt>
<trkpt lat="31.7420800" lon="35.1333200">
<ele>662.940002</ele>
<time>2025-05-21T10:17:06.266Z</time>
</trkpt>
<trkpt lat="31.7425100" lon="35.1333600">
<ele>654.909973</ele>
<time>2025-05-21T10:17:06.266Z</time>
</trkpt>
<trkpt lat="31.7428700" lon="35.1333700">
<ele>648.920044</ele>
<time>2025-05-21T10:17:06.266Z</time>
</trkpt>
<trkpt lat="31.7428700" lon="35.1333700">
<ele>648.920044</ele>
<time>2025-05-21T10:17:06.266Z</time>
</trkpt>
<trkpt lat="31.7428700" lon="35.1333700">
<ele>648.920044</ele>
<time>2025-05-21T10:17:06.266Z</time>
</trkpt>
<trkpt lat="31.7431600" lon="35.1333700">
<ele>654.160034</ele>
<time>2025-05-21T10:17:06.266Z</time>
</trkpt>
<trkpt lat="31.7433100" lon="35.1333900">
<ele>657.339966</ele>
<time>2025-05-21T10:17:06.266Z</time>
</trkpt>
<trkpt lat="31.7433800" lon="35.1333800">
<ele>658.510010</ele>
<time>2025-05-21T10:17:06.266Z</time>
</trkpt>
<trkpt lat="31.7434500" lon="35.1333600">
<ele>659.479980</ele>
<time>2025-05-21T10:17:06.266Z</time>
</trkpt>
<trkpt lat="31.7435000" lon="35.1333000">
<ele>659.880005</ele>
<time>2025-05-21T10:17:06.266Z</time>
</trkpt>
<trkpt lat="31.7435400" lon="35.1331900">
<ele>660.200012</ele>
<time>2025-05-21T10:17:06.266Z</time>
</trkpt>
<trkpt lat="31.7435200" lon="35.1330600">
<ele>659.380005</ele>
<time>2025-05-21T10:17:06.266Z</time>
</trkpt>
<trkpt lat="31.7435100" lon="35.1330100">
<ele>659.159973</ele>
<time>2025-05-21T10:17:06.266Z</time>
</trkpt>
<trkpt lat="31.7435100" lon="35.1330100">
<ele>659.159973</ele>
<time>2025-05-21T10:17:06.266Z</time>
</trkpt>
<trkpt lat="31.7434500" lon="35.1327800">
<ele>657.370056</ele>
<time>2025-05-21T10:17:06.266Z</time>
</trkpt>
<trkpt lat="31.7434100" lon="35.1324900">
<ele>653.500000</ele>
<time>2025-05-21T10:17:06.266Z</time>
</trkpt>
<trkpt lat="31.7433900" lon="35.1320200">
<ele>647.909973</ele>
<time>2025-05-21T10:17:06.266Z</time>
</trkpt>
<trkpt lat="31.7434100" lon="35.1317700">
<ele>645.699951</ele>
<time>2025-05-21T10:17:06.266Z</time>
</trkpt>
<trkpt lat="31.7434800" lon="35.1313500">
<ele>641.390015</ele>
<time>2025-05-21T10:17:06.266Z</time>
</trkpt>
<trkpt lat="31.7435400" lon="35.1311500">
<ele>638.519958</ele>
<time>2025-05-21T10:17:06.266Z</time>
</trkpt>
<trkpt lat="31.7436200" lon="35.1309600">
<ele>635.350037</ele>
<time>2025-05-21T10:17:06.266Z</time>
</trkpt>
<trkpt lat="31.7437500" lon="35.1307500">
<ele>632.149963</ele>
<time>2025-05-21T10:17:06.266Z</time>
</trkpt>
<trkpt lat="31.7439100" lon="35.1305300">
<ele>629.760010</ele>
<time>2025-05-21T10:17:06.266Z</time>
</trkpt>
<trkpt lat="31.7441400" lon="35.1303300">
<ele>625.619995</ele>
<time>2025-05-21T10:17:06.266Z</time>
</trkpt>
<trkpt lat="31.7441400" lon="35.1303200">
<ele>625.350037</ele>
<time>2025-05-21T10:17:06.266Z</time>
</trkpt>
<trkpt lat="31.7441400" lon="35.1303200">
<ele>625.350037</ele>
<time>2025-05-21T10:17:06.266Z</time>
</trkpt>
<trkpt lat="31.7447500" lon="35.1300000">
<ele>610.299988</ele>
<time>2025-05-21T10:17:06.266Z</time>
</trkpt>
<trkpt lat="31.7449900" lon="35.1299000">
<ele>610.730042</ele>
<time>2025-05-21T10:17:06.266Z</time>
</trkpt>
<trkpt lat="31.7452300" lon="35.1298500">
<ele>611.799988</ele>
<time>2025-05-21T10:17:06.266Z</time>
</trkpt>
<trkpt lat="31.7454000" lon="35.1298400">
<ele>613.099976</ele>
<time>2025-05-21T10:17:06.266Z</time>
</trkpt>
<trkpt lat="31.7455300" lon="35.1298300">
<ele>614.089966</ele>
<time>2025-05-21T10:17:06.266Z</time>
</trkpt>
<trkpt lat="31.7457700" lon="35.1298100">
<ele>615.400024</ele>
<time>2025-05-21T10:17:06.266Z</time>
</trkpt>
<trkpt lat="31.7464600" lon="35.1294300">
<ele>602.659973</ele>
<time>2025-05-21T10:17:06.266Z</time>
</trkpt>
<trkpt lat="31.7467400" lon="35.1293500">
<ele>605.989990</ele>
<time>2025-05-21T10:17:06.266Z</time>
</trkpt>
<trkpt lat="31.7470300" lon="35.1293200">
<ele>612.090027</ele>
<time>2025-05-21T10:17:06.266Z</time>
</trkpt>
<trkpt lat="31.7470900" lon="35.1292900">
<ele>612.859985</ele>
<time>2025-05-21T10:17:06.266Z</time>
</trkpt>
<trkpt lat="31.7471600" lon="35.1292100">
<ele>612.750000</ele>
<time>2025-05-21T10:17:06.266Z</time>
</trkpt>
<trkpt lat="31.7471800" lon="35.1291000">
<ele>611.719971</ele>
<time>2025-05-21T10:17:06.266Z</time>
</trkpt>
<trkpt lat="31.7471900" lon="35.1289400">
<ele>610.690002</ele>
<time>2025-05-21T10:17:06.266Z</time>
</trkpt>
<trkpt lat="31.7472000" lon="35.1284800">
<ele>607.700012</ele>
<time>2025-05-21T10:17:06.266Z</time>
</trkpt>
<trkpt lat="31.7472100" lon="35.1282300">
<ele>604.940002</ele>
<time>2025-05-21T10:17:06.266Z</time>
</trkpt>
<trkpt lat="31.7472300" lon="35.1280700">
<ele>602.440002</ele>
<time>2025-05-21T10:17:06.266Z</time>
</trkpt>
<trkpt lat="31.7472800" lon="35.1279300">
<ele>601.799988</ele>
<time>2025-05-21T10:17:06.266Z</time>
</trkpt>
<trkpt lat="31.7472900" lon="35.1277800">
<ele>600.250000</ele>
<time>2025-05-21T10:17:06.266Z</time>
</trkpt>
<trkpt lat="31.7472700" lon="35.1276200">
<ele>600.619995</ele>
<time>2025-05-21T10:17:06.266Z</time>
</trkpt>
<trkpt lat="31.7471900" lon="35.1275400">
<ele>599.820007</ele>
<time>2025-05-21T10:17:06.266Z</time>
</trkpt>
<trkpt lat="31.7469400" lon="35.1273900">
<ele>601.190002</ele>
<time>2025-05-21T10:17:06.266Z</time>
</trkpt>
<trkpt lat="31.7465100" lon="35.1270600">
<ele>600.460022</ele>
<time>2025-05-21T10:17:06.266Z</time>
</trkpt>
<trkpt lat="31.7462500" lon="35.1269100">
<ele>597.690002</ele>
<time>2025-05-21T10:17:06.266Z</time>
</trkpt>
<trkpt lat="31.7461400" lon="35.1268100">
<ele>596.049988</ele>
<time>2025-05-21T10:17:06.266Z</time>
</trkpt>
<trkpt lat="31.7460800" lon="35.1267200">
<ele>595.250000</ele>
<time>2025-05-21T10:17:06.266Z</time>
</trkpt>
<trkpt lat="31.7460400" lon="35.1266100">
<ele>594.160034</ele>
<time>2025-05-21T10:17:06.266Z</time>
</trkpt>
<trkpt lat="31.7460200" lon="35.1265000">
<ele>592.570007</ele>
<time>2025-05-21T10:17:06.266Z</time>
</trkpt>
<trkpt lat="31.7460100" lon="35.1263600">
<ele>590.669983</ele>
<time>2025-05-21T10:17:06.266Z</time>
</trkpt>
<trkpt lat="31.7460500" lon="35.1257500">
<ele>584.660034</ele>
<time>2025-05-21T10:17:06.266Z</time>
</trkpt>
<trkpt lat="31.7460400" lon="35.1256700">
<ele>584.660034</ele>
<time>2025-05-21T10:17:06.266Z</time>
</trkpt>
<trkpt lat="31.7459900" lon="35.1255200">
<ele>584.910034</ele>
<time>2025-05-21T10:17:06.266Z</time>
</trkpt>
<trkpt lat="31.7459200" lon="35.1254300">
<ele>585.340027</ele>
<time>2025-05-21T10:17:06.266Z</time>
</trkpt>
<trkpt lat="31.7458700" lon="35.1253700">
<ele>585.380005</ele>
<time>2025-05-21T10:17:06.266Z</time>
</trkpt>
<trkpt lat="31.7458000" lon="35.1252400">
<ele>585.760010</ele>
<time>2025-05-21T10:17:06.266Z</time>
</trkpt>
<trkpt lat="31.7457100" lon="35.1248500">
<ele>585.640015</ele>
<time>2025-05-21T10:17:06.266Z</time>
</trkpt>
<trkpt lat="31.7455800" lon="35.1244800">
<ele>583.559998</ele>
<time>2025-05-21T10:17:06.266Z</time>
</trkpt>
<trkpt lat="31.7453900" lon="35.1238000">
<ele>577.040039</ele>
<time>2025-05-21T10:17:06.266Z</time>
</trkpt>
<trkpt lat="31.7451000" lon="35.1231000">
<ele>569.639954</ele>
<time>2025-05-21T10:17:06.266Z</time>
</trkpt>
<trkpt lat="31.7450400" lon="35.1229400">
<ele>568.210022</ele>
<time>2025-05-21T10:17:06.266Z</time>
</trkpt>
<trkpt lat="31.7450000" lon="35.1227200">
<ele>568.210022</ele>
<time>2025-05-21T10:17:06.266Z</time>
</trkpt>
<trkpt lat="31.7449800" lon="35.1223900">
<ele>568.919983</ele>
<time>2025-05-21T10:17:06.266Z</time>
</trkpt>
<trkpt lat="31.7449500" lon="35.1222900">
<ele>568.630005</ele>
<time>2025-05-21T10:17:06.266Z</time>
</trkpt>
<trkpt lat="31.7448700" lon="35.1221800">
<ele>568.029968</ele>
<time>2025-05-21T10:17:06.266Z</time>
</trkpt>
<trkpt lat="31.7443000" lon="35.1217600">
<ele>568.390015</ele>
<time>2025-05-21T10:17:06.266Z</time>
</trkpt>
<trkpt lat="31.7437700" lon="35.1212600">
<ele>558.450012</ele>
<time>2025-05-21T10:17:06.266Z</time>
</trkpt>
<trkpt lat="31.7435800" lon="35.1210600">
<ele>557.500000</ele>
<time>2025-05-21T10:17:06.266Z</time>
</trkpt>
<trkpt lat="31.7429700" lon="35.1203500">
<ele>546.229980</ele>
<time>2025-05-21T10:17:06.266Z</time>
</trkpt>
<trkpt lat="31.7429100" lon="35.1203200">
<ele>544.280029</ele>
<time>2025-05-21T10:17:06.266Z</time>
</trkpt>
<trkpt lat="31.7423900" lon="35.1201900">
<ele>541.070007</ele>
<time>2025-05-21T10:17:06.266Z</time>
</trkpt>
<trkpt lat="31.7421600" lon="35.1201000">
<ele>539.660034</ele>
<time>2025-05-21T10:17:06.266Z</time>
</trkpt>
<trkpt lat="31.7419200" lon="35.1199500">
<ele>539.739990</ele>
<time>2025-05-21T10:17:06.266Z</time>
</trkpt>
<trkpt lat="31.7415100" lon="35.1197600">
<ele>537.010010</ele>
<time>2025-05-21T10:17:06.266Z</time>
</trkpt>
<trkpt lat="31.7407400" lon="35.1194200">
<ele>528.809998</ele>
<time>2025-05-21T10:17:06.266Z</time>
</trkpt>
<trkpt lat="31.7402600" lon="35.1192800">
<ele>532.000000</ele>
<time>2025-05-21T10:17:06.266Z</time>
</trkpt>
<trkpt lat="31.7399500" lon="35.1192500">
<ele>528.559998</ele>
<time>2025-05-21T10:17:06.266Z</time>
</trkpt>
<trkpt lat="31.7395100" lon="35.1191600">
<ele>518.350037</ele>
<time>2025-05-21T10:17:06.266Z</time>
</trkpt>
<trkpt lat="31.7387500" lon="35.1190500">
<ele>507.970001</ele>
<time>2025-05-21T10:17:06.266Z</time>
</trkpt>
<trkpt lat="31.7369200" lon="35.1188400">
<ele>508.110016</ele>
<time>2025-05-21T10:17:06.266Z</time>
</trkpt>
<trkpt lat="31.7367200" lon="35.1188000">
<ele>507.290009</ele>
<time>2025-05-21T10:17:06.266Z</time>
</trkpt>
<trkpt lat="31.7363700" lon="35.1186000">
<ele>501.789978</ele>
<time>2025-05-21T10:17:06.266Z</time>
</trkpt>
<trkpt lat="31.7364700" lon="35.1177700">
<ele>507.470001</ele>
<time>2025-05-21T10:17:06.266Z</time>
</trkpt>
<trkpt lat="31.7365300" lon="35.1175300">
<ele>508.529999</ele>
<time>2025-05-21T10:17:06.266Z</time>
</trkpt>
<trkpt lat="31.7365900" lon="35.1173600">
<ele>507.799988</ele>
<time>2025-05-21T10:17:06.266Z</time>
</trkpt>
<trkpt lat="31.7372600" lon="35.1163700">
<ele>515.260010</ele>
<time>2025-05-21T10:17:06.266Z</time>
</trkpt>
<trkpt lat="31.7373400" lon="35.1162000">
<ele>516.700012</ele>
<time>2025-05-21T10:17:06.266Z</time>
</trkpt>
<trkpt lat="31.7376000" lon="35.1154600">
<ele>517.159973</ele>
<time>2025-05-21T10:17:06.266Z</time>
</trkpt>
<trkpt lat="31.7376200" lon="35.1151200">
<ele>514.690002</ele>
<time>2025-05-21T10:17:06.266Z</time>
</trkpt>
<trkpt lat="31.7376700" lon="35.1148300">
<ele>513.669983</ele>
<time>2025-05-21T10:17:06.266Z</time>
</trkpt>
<trkpt lat="31.7378300" lon="35.1142900">
<ele>513.649963</ele>
<time>2025-05-21T10:17:06.266Z</time>
</trkpt>
<trkpt lat="31.7379800" lon="35.1139700">
<ele>513.779968</ele>
<time>2025-05-21T10:17:06.266Z</time>
</trkpt>
<trkpt lat="31.7381400" lon="35.1136900">
<ele>514.760010</ele>
<time>2025-05-21T10:17:06.266Z</time>
</trkpt>
<trkpt lat="31.7383700" lon="35.1133300">
<ele>513.590027</ele>
<time>2025-05-21T10:17:06.266Z</time>
</trkpt>
<trkpt lat="31.7387800" lon="35.1129000">
<ele>513.390015</ele>
<time>2025-05-21T10:17:06.266Z</time>
</trkpt>
<trkpt lat="31.7391400" lon="35.1126200">
<ele>509.130005</ele>
<time>2025-05-21T10:17:06.266Z</time>
</trkpt>
<trkpt lat="31.7394900" lon="35.1124500">
<ele>505.509979</ele>
<time>2025-05-21T10:17:06.266Z</time>
</trkpt>
<trkpt lat="31.7403000" lon="35.1121400">
<ele>507.489990</ele>
<time>2025-05-21T10:17:06.266Z</time>
</trkpt>
<trkpt lat="31.7405900" lon="35.1120100">
<ele>510.839996</ele>
<time>2025-05-21T10:17:06.266Z</time>
</trkpt>
<trkpt lat="31.7408300" lon="35.1118900">
<ele>514.940002</ele>
<time>2025-05-21T10:17:06.266Z</time>
</trkpt>
<trkpt lat="31.7409500" lon="35.1118100">
<ele>516.109985</ele>
<time>2025-05-21T10:17:06.266Z</time>
</trkpt>
<trkpt lat="31.7412900" lon="35.1115300">
<ele>519.219971</ele>
<time>2025-05-21T10:17:06.266Z</time>
</trkpt>
<trkpt lat="31.7417200" lon="35.1111200">
<ele>523.890015</ele>
<time>2025-05-21T10:17:06.266Z</time>
</trkpt>
<trkpt lat="31.7417700" lon="35.1110700">
<ele>525.200012</ele>
<time>2025-05-21T10:17:06.266Z</time>
</trkpt>
<trkpt lat="31.7419400" lon="35.1107800">
<ele>529.470032</ele>
<time>2025-05-21T10:17:06.266Z</time>
</trkpt>
<trkpt lat="31.7421300" lon="35.1103700">
<ele>532.900024</ele>
<time>2025-05-21T10:17:06.266Z</time>
</trkpt>
<trkpt lat="31.7423200" lon="35.1097700">
<ele>533.710022</ele>
<time>2025-05-21T10:17:06.266Z</time>
</trkpt>
<trkpt lat="31.7424400" lon="35.1089600">
<ele>530.619995</ele>
<time>2025-05-21T10:17:06.266Z</time>
</trkpt>
<trkpt lat="31.7424700" lon="35.1088800">
<ele>530.200012</ele>
<time>2025-05-21T10:17:06.266Z</time>
</trkpt>
<trkpt lat="31.7425200" lon="35.1088400">
<ele>530.190002</ele>
<time>2025-05-21T10:17:06.266Z</time>
</trkpt>
<trkpt lat="31.7426100" lon="35.1088400">
<ele>530.520020</ele>
<time>2025-05-21T10:17:06.266Z</time>
</trkpt>
<trkpt lat="31.7427900" lon="35.1088400">
<ele>531.130005</ele>
<time>2025-05-21T10:17:06.266Z</time>
</trkpt>
<trkpt lat="31.7430700" lon="35.1089300">
<ele>532.720032</ele>
<time>2025-05-21T10:17:06.266Z</time>
</trkpt>
<trkpt lat="31.7434800" lon="35.1091600">
<ele>533.469971</ele>
<time>2025-05-21T10:17:06.266Z</time>
</trkpt>
<trkpt lat="31.7435900" lon="35.1091800">
<ele>534.169983</ele>
<time>2025-05-21T10:17:06.266Z</time>
</trkpt>
<trkpt lat="31.7436600" lon="35.1091800">
<ele>535.279968</ele>
<time>2025-05-21T10:17:06.266Z</time>
</trkpt>
<trkpt lat="31.7437300" lon="35.1091200">
<ele>536.330017</ele>
<time>2025-05-21T10:17:06.266Z</time>
</trkpt>
<trkpt lat="31.7437800" lon="35.1090100">
<ele>536.739990</ele>
<time>2025-05-21T10:17:06.266Z</time>
</trkpt>
<trkpt lat="31.7438500" lon="35.1087400">
<ele>537.220032</ele>
<time>2025-05-21T10:17:06.266Z</time>
</trkpt>
<trkpt lat="31.7438900" lon="35.1086200">
<ele>538.030029</ele>
<time>2025-05-21T10:17:06.266Z</time>
</trkpt>
<trkpt lat="31.7439500" lon="35.1085300">
<ele>538.989990</ele>
<time>2025-05-21T10:17:06.266Z</time>
</trkpt>
<trkpt lat="31.7440400" lon="35.1083100">
<ele>538.500000</ele>
<time>2025-05-21T10:17:06.266Z</time>
</trkpt>
<trkpt lat="31.7441200" lon="35.1080900">
<ele>537.890015</ele>
<time>2025-05-21T10:17:06.266Z</time>
</trkpt>
<trkpt lat="31.7442000" lon="35.1079500">
<ele>536.929993</ele>
<time>2025-05-21T10:17:06.266Z</time>
</trkpt>
<trkpt lat="31.7443100" lon="35.1078500">
<ele>535.909973</ele>
<time>2025-05-21T10:17:06.266Z</time>
</trkpt>
<trkpt lat="31.7444300" lon="35.1078000">
<ele>535.320007</ele>
<time>2025-05-21T10:17:06.266Z</time>
</trkpt>
<trkpt lat="31.7444300" lon="35.1078000">
<ele>535.320007</ele>
<time>2025-05-21T10:17:06.266Z</time>
</trkpt>
<trkpt lat="31.7444300" lon="35.1078100">
<ele>535.460022</ele>
<time>2025-05-21T10:17:06.266Z</time>
</trkpt>
<trkpt lat="31.7444900" lon="35.1077800">
<ele>534.549988</ele>
<time>2025-05-21T10:17:06.266Z</time>
</trkpt>
<trkpt lat="31.7446600" lon="35.1077600">
<ele>532.380005</ele>
<time>2025-05-21T10:17:06.266Z</time>
</trkpt>
<trkpt lat="31.7449400" lon="35.1077300">
<ele>532.840027</ele>
<time>2025-05-21T10:17:06.266Z</time>
</trkpt>
<trkpt lat="31.7451000" lon="35.1077100">
<ele>532.659973</ele>
<time>2025-05-21T10:17:06.266Z</time>
</trkpt>
<trkpt lat="31.7458400" lon="35.1075000">
<ele>529.019958</ele>
<time>2025-05-21T10:17:06.266Z</time>
</trkpt>
<trkpt lat="31.7463000" lon="35.1074000">
<ele>531.450012</ele>
<time>2025-05-21T10:17:06.266Z</time>
</trkpt>
<trkpt lat="31.7464000" lon="35.1073700">
<ele>532.710022</ele>
<time>2025-05-21T10:17:06.266Z</time>
</trkpt>
<trkpt lat="31.7465400" lon="35.1073000">
<ele>534.609985</ele>
<time>2025-05-21T10:17:06.266Z</time>
</trkpt>
<trkpt lat="31.7466800" lon="35.1071700">
<ele>536.540039</ele>
<time>2025-05-21T10:17:06.266Z</time>
</trkpt>
<trkpt lat="31.7467800" lon="35.1069900">
<ele>539.080017</ele>
<time>2025-05-21T10:17:06.266Z</time>
</trkpt>
<trkpt lat="31.7468400" lon="35.1067900">
<ele>540.470032</ele>
<time>2025-05-21T10:17:06.266Z</time>
</trkpt>
<trkpt lat="31.7468600" lon="35.1066200">
<ele>541.580017</ele>
<time>2025-05-21T10:17:06.266Z</time>
</trkpt>
<trkpt lat="31.7468600" lon="35.1065400">
<ele>542.270020</ele>
<time>2025-05-21T10:17:06.266Z</time>
</trkpt>
<trkpt lat="31.7468400" lon="35.1064600">
<ele>542.419983</ele>
<time>2025-05-21T10:17:06.266Z</time>
</trkpt>
<trkpt lat="31.7467900" lon="35.1063400">
<ele>542.859985</ele>
<time>2025-05-21T10:17:06.266Z</time>
</trkpt>
<trkpt lat="31.7467300" lon="35.1062400">
<ele>543.700012</ele>
<time>2025-05-21T10:17:06.266Z</time>
</trkpt>
<trkpt lat="31.7465200" lon="35.1060000">
<ele>547.479980</ele>
<time>2025-05-21T10:17:06.266Z</time>
</trkpt>
<trkpt lat="31.7463600" lon="35.1057700">
<ele>549.289978</ele>
<time>2025-05-21T10:17:06.266Z</time>
</trkpt>
<trkpt lat="31.7462500" lon="35.1055900">
<ele>549.500000</ele>
<time>2025-05-21T10:17:06.266Z</time>
</trkpt>
<trkpt lat="31.7462500" lon="35.1055900">
<ele>549.500000</ele>
<time>2025-05-21T10:17:06.266Z</time>
</trkpt>
<trkpt lat="31.7461700" lon="35.1054100">
<ele>549.320007</ele>
<time>2025-05-21T10:17:06.266Z</time>
</trkpt>
<trkpt lat="31.7460900" lon="35.1051700">
<ele>548.979980</ele>
<time>2025-05-21T10:17:06.266Z</time>
</trkpt>
<trkpt lat="31.7460400" lon="35.1049700">
<ele>548.619995</ele>
<time>2025-05-21T10:17:06.266Z</time>
</trkpt>
<trkpt lat="31.7459700" lon="35.1045900">
<ele>547.460022</ele>
<time>2025-05-21T10:17:06.266Z</time>
</trkpt>
<trkpt lat="31.7459200" lon="35.1041700">
<ele>545.500000</ele>
<time>2025-05-21T10:17:06.266Z</time>
</trkpt>
<trkpt lat="31.7458800" lon="35.1040100">
<ele>546.040039</ele>
<time>2025-05-21T10:17:06.266Z</time>
</trkpt>
<trkpt lat="31.7458100" lon="35.1038100">
<ele>546.760010</ele>
<time>2025-05-21T10:17:06.266Z</time>
</trkpt>
<trkpt lat="31.7454500" lon="35.1031200">
<ele>551.489990</ele>
<time>2025-05-21T10:17:06.266Z</time>
</trkpt>
<trkpt lat="31.7452800" lon="35.1027000">
<ele>551.330017</ele>
<time>2025-05-21T10:17:06.266Z</time>
</trkpt>
<trkpt lat="31.7451800" lon="35.1023400">
<ele>551.169983</ele>
<time>2025-05-21T10:17:06.266Z</time>
</trkpt>
<trkpt lat="31.7454000" lon="35.1009100">
<ele>562.369995</ele>
<time>2025-05-21T10:17:06.266Z</time>
</trkpt>
<trkpt lat="31.7454400" lon="35.1006500">
<ele>563.950012</ele>
<time>2025-05-21T10:17:06.266Z</time>
</trkpt>
<trkpt lat="31.7454500" lon="35.1006500">
<ele>564.209961</ele>
<time>2025-05-21T10:17:06.266Z</time>
</trkpt>
<trkpt lat="31.7454500" lon="35.1006500">
<ele>564.209961</ele>
<time>2025-05-21T10:17:06.266Z</time>
</trkpt>
<trkpt lat="31.7454600" lon="35.1005100">
<ele>564.650024</ele>
<time>2025-05-21T10:17:06.266Z</time>
</trkpt>
<trkpt lat="31.7455200" lon="35.1003200">
<ele>566.210022</ele>
<time>2025-05-21T10:17:06.266Z</time>
</trkpt>
<trkpt lat="31.7455500" lon="35.1002100">
<ele>566.390015</ele>
<time>2025-05-21T10:17:06.266Z</time>
</trkpt>
<trkpt lat="31.7456300" lon="35.1000900">
<ele>567.780029</ele>
<time>2025-05-21T10:17:06.266Z</time>
</trkpt>
<trkpt lat="31.7459800" lon="35.0996600">
<ele>571.929993</ele>
<time>2025-05-21T10:17:06.266Z</time>
</trkpt>
<trkpt lat="31.7460200" lon="35.0994800">
<ele>571.859985</ele>
<time>2025-05-21T10:17:06.266Z</time>
</trkpt>
<trkpt lat="31.7460300" lon="35.0993200">
<ele>572.540039</ele>
<time>2025-05-21T10:17:06.266Z</time>
</trkpt>
<trkpt lat="31.7460300" lon="35.0989600">
<ele>574.470032</ele>
<time>2025-05-21T10:17:06.266Z</time>
</trkpt>
<trkpt lat="31.7460200" lon="35.0988000">
<ele>574.580017</ele>
<time>2025-05-21T10:17:06.266Z</time>
</trkpt>
<trkpt lat="31.7460500" lon="35.0986500">
<ele>574.929993</ele>
<time>2025-05-21T10:17:06.266Z</time>
</trkpt>
<trkpt lat="31.7460600" lon="35.0983300">
<ele>571.210022</ele>
<time>2025-05-21T10:17:06.266Z</time>
</trkpt>
<trkpt lat="31.7460900" lon="35.0981100">
<ele>568.359985</ele>
<time>2025-05-21T10:17:06.266Z</time>
</trkpt>
<trkpt lat="31.7461600" lon="35.0979600">
<ele>566.899963</ele>
<time>2025-05-21T10:17:06.266Z</time>
</trkpt>
<trkpt lat="31.7462200" lon="35.0978700">
<ele>565.340027</ele>
<time>2025-05-21T10:17:06.266Z</time>
</trkpt>
<trkpt lat="31.7462800" lon="35.0978200">
<ele>564.000000</ele>
<time>2025-05-21T10:17:06.266Z</time>
</trkpt>
<trkpt lat="31.7464600" lon="35.0977500">
<ele>560.630005</ele>
<time>2025-05-21T10:17:06.266Z</time>
</trkpt>
<trkpt lat="31.7468000" lon="35.0977000">
<ele>557.039978</ele>
<time>2025-05-21T10:17:06.266Z</time>
</trkpt>
<trkpt lat="31.7469800" lon="35.0976400">
<ele>555.649963</ele>
<time>2025-05-21T10:17:06.266Z</time>
</trkpt>
<trkpt lat="31.7470300" lon="35.0976200">
<ele>555.380005</ele>
<time>2025-05-21T10:17:06.266Z</time>
</trkpt>
<trkpt lat="31.7472500" lon="35.0975100">
<ele>552.729980</ele>
<time>2025-05-21T10:17:06.266Z</time>
</trkpt>
<trkpt lat="31.7474100" lon="35.0974100">
<ele>552.739990</ele>
<time>2025-05-21T10:17:06.266Z</time>
</trkpt>
<trkpt lat="31.7474800" lon="35.0973600">
<ele>551.900024</ele>
<time>2025-05-21T10:17:06.266Z</time>
</trkpt>
<trkpt lat="31.7475400" lon="35.0973300">
<ele>551.869995</ele>
<time>2025-05-21T10:17:06.266Z</time>
</trkpt>
<trkpt lat="31.7479500" lon="35.0971300">
<ele>548.390015</ele>
<time>2025-05-21T10:17:06.266Z</time>
</trkpt>
<trkpt lat="31.7482700" lon="35.0970000">
<ele>542.719971</ele>
<time>2025-05-21T10:17:06.266Z</time>
</trkpt>
<trkpt lat="31.7483500" lon="35.0969400">
<ele>539.830017</ele>
<time>2025-05-21T10:17:06.266Z</time>
</trkpt>
<trkpt lat="31.7485800" lon="35.0968500">
<ele>537.029968</ele>
<time>2025-05-21T10:17:06.266Z</time>
</trkpt>
<trkpt lat="31.7489200" lon="35.0966800">
<ele>542.609985</ele>
<time>2025-05-21T10:17:06.266Z</time>
</trkpt>
<trkpt lat="31.7492500" lon="35.0964900">
<ele>542.539978</ele>
<time>2025-05-21T10:17:06.266Z</time>
</trkpt>
<trkpt lat="31.7493500" lon="35.0964600">
<ele>544.570007</ele>
<time>2025-05-21T10:17:06.266Z</time>
</trkpt>
<trkpt lat="31.7497300" lon="35.0964500">
<ele>550.380005</ele>
<time>2025-05-21T10:17:06.266Z</time>
</trkpt>
<trkpt lat="31.7498200" lon="35.0964100">
<ele>550.190002</ele>
<time>2025-05-21T10:17:06.266Z</time>
</trkpt>
<trkpt lat="31.7498800" lon="35.0963300">
<ele>548.770020</ele>
<time>2025-05-21T10:17:06.266Z</time>
</trkpt>
<trkpt lat="31.7499200" lon="35.0961800">
<ele>545.700012</ele>
<time>2025-05-21T10:17:06.266Z</time>
</trkpt>
<trkpt lat="31.7500800" lon="35.0957700">
<ele>538.850037</ele>
<time>2025-05-21T10:17:06.266Z</time>
</trkpt>
<trkpt lat="31.7502000" lon="35.0955700">
<ele>536.869995</ele>
<time>2025-05-21T10:17:06.266Z</time>
</trkpt>
<trkpt lat="31.7503100" lon="35.0954600">
<ele>536.479980</ele>
<time>2025-05-21T10:17:06.266Z</time>
</trkpt>
<trkpt lat="31.7505400" lon="35.0952600">
<ele>535.429993</ele>
<time>2025-05-21T10:17:06.266Z</time>
</trkpt>
<trkpt lat="31.7509400" lon="35.0950000">
<ele>533.150024</ele>
<time>2025-05-21T10:17:06.266Z</time>
</trkpt>
<trkpt lat="31.7514400" lon="35.0946100">
<ele>531.559998</ele>
<time>2025-05-21T10:17:06.266Z</time>
</trkpt>
<trkpt lat="31.7515400" lon="35.0945100">
<ele>532.659973</ele>
<time>2025-05-21T10:17:06.266Z</time>
</trkpt>
<trkpt lat="31.7518700" lon="35.0939900">
<ele>534.849976</ele>
<time>2025-05-21T10:17:06.266Z</time>
</trkpt>
<trkpt lat="31.7519900" lon="35.0937300">
<ele>535.130005</ele>
<time>2025-05-21T10:17:06.266Z</time>
</trkpt>
<trkpt lat="31.7520600" lon="35.0934200">
<ele>533.690002</ele>
<time>2025-05-21T10:17:06.266Z</time>
</trkpt>
<trkpt lat="31.7522200" lon="35.0922900">
<ele>532.399963</ele>
<time>2025-05-21T10:17:06.266Z</time>
</trkpt>
<trkpt lat="31.7522600" lon="35.0921600">
<ele>532.659973</ele>
<time>2025-05-21T10:17:06.266Z</time>
</trkpt>
<trkpt lat="31.7526600" lon="35.0910200">
<ele>523.940002</ele>
<time>2025-05-21T10:17:06.266Z</time>
</trkpt>
<trkpt lat="31.7527000" lon="35.0909300">
<ele>522.989990</ele>
<time>2025-05-21T10:17:06.266Z</time>
</trkpt>
<trkpt lat="31.7528600" lon="35.0907000">
<ele>523.190002</ele>
<time>2025-05-21T10:17:06.266Z</time>
</trkpt>
<trkpt lat="31.7529700" lon="35.0905500">
<ele>522.400024</ele>
<time>2025-05-21T10:17:06.266Z</time>
</trkpt>
<trkpt lat="31.7532900" lon="35.0902500">
<ele>532.529968</ele>
<time>2025-05-21T10:17:06.266Z</time>
</trkpt>
<trkpt lat="31.7533400" lon="35.0902300">
<ele>533.869995</ele>
<time>2025-05-21T10:17:06.266Z</time>
</trkpt>
<trkpt lat="31.7534400" lon="35.0902300">
<ele>534.450012</ele>
<time>2025-05-21T10:17:06.266Z</time>
</trkpt>
<trkpt lat="31.7536400" lon="35.0902400">
<ele>535.020020</ele>
<time>2025-05-21T10:17:06.266Z</time>
</trkpt>
<trkpt lat="31.7541800" lon="35.0904300">
<ele>526.890015</ele>
<time>2025-05-21T10:17:06.266Z</time>
</trkpt>
<trkpt lat="31.7545400" lon="35.0906500">
<ele>520.369995</ele>
<time>2025-05-21T10:17:06.266Z</time>
</trkpt>
<trkpt lat="31.7546500" lon="35.0907500">
<ele>518.580017</ele>
<time>2025-05-21T10:17:06.266Z</time>
</trkpt>
<trkpt lat="31.7547400" lon="35.0908600">
<ele>518.159973</ele>
<time>2025-05-21T10:17:06.266Z</time>
</trkpt>
<trkpt lat="31.7548900" lon="35.0912200">
<ele>523.589966</ele>
<time>2025-05-21T10:17:06.266Z</time>
</trkpt>
<trkpt lat="31.7549900" lon="35.0913900">
<ele>528.169983</ele>
<time>2025-05-21T10:17:06.266Z</time>
</trkpt>
<trkpt lat="31.7551100" lon="35.0914900">
<ele>528.919983</ele>
<time>2025-05-21T10:17:06.266Z</time>
</trkpt>
<trkpt lat="31.7552700" lon="35.0915400">
<ele>524.320007</ele>
<time>2025-05-21T10:17:06.266Z</time>
</trkpt>
<trkpt lat="31.7554100" lon="35.0915400">
<ele>520.869995</ele>
<time>2025-05-21T10:17:06.266Z</time>
</trkpt>
<trkpt lat="31.7555200" lon="35.0915200">
<ele>517.549988</ele>
<time>2025-05-21T10:17:06.266Z</time>
</trkpt>
<trkpt lat="31.7556400" lon="35.0914800">
<ele>515.690002</ele>
<time>2025-05-21T10:17:06.266Z</time>
</trkpt>
<trkpt lat="31.7558500" lon="35.0912700">
<ele>512.719971</ele>
<time>2025-05-21T10:17:06.266Z</time>
</trkpt>
<trkpt lat="31.7560500" lon="35.0912000">
<ele>511.959991</ele>
<time>2025-05-21T10:17:06.266Z</time>
</trkpt>
<trkpt lat="31.7561500" lon="35.0912000">
<ele>511.020020</ele>
<time>2025-05-21T10:17:06.266Z</time>
</trkpt>
<trkpt lat="31.7562500" lon="35.0912000">
<ele>508.619995</ele>
<time>2025-05-21T10:17:06.266Z</time>
</trkpt>
<trkpt lat="31.7564300" lon="35.0912500">
<ele>504.449982</ele>
<time>2025-05-21T10:17:06.266Z</time>
</trkpt>
<trkpt lat="31.7565100" lon="35.0913700">
<ele>503.720001</ele>
<time>2025-05-21T10:17:06.266Z</time>
</trkpt>
<trkpt lat="31.7565500" lon="35.0914800">
<ele>505.269989</ele>
<time>2025-05-21T10:17:06.266Z</time>
</trkpt>
<trkpt lat="31.7567000" lon="35.0922700">
<ele>522.010010</ele>
<time>2025-05-21T10:17:06.266Z</time>
</trkpt>
<trkpt lat="31.7567600" lon="35.0924600">
<ele>523.979980</ele>
<time>2025-05-21T10:17:06.266Z</time>
</trkpt>
<trkpt lat="31.7568800" lon="35.0927700">
<ele>528.989990</ele>
<time>2025-05-21T10:17:06.266Z</time>
</trkpt>
<trkpt lat="31.7569400" lon="35.0928600">
<ele>530.179993</ele>
<time>2025-05-21T10:17:06.266Z</time>
</trkpt>
<trkpt lat="31.7570800" lon="35.0930200">
<ele>529.650024</ele>
<time>2025-05-21T10:17:06.266Z</time>
</trkpt>
<trkpt lat="31.7576000" lon="35.0934800">
<ele>529.940002</ele>
<time>2025-05-21T10:17:06.266Z</time>
</trkpt>
<trkpt lat="31.7578200" lon="35.0936300">
<ele>527.070007</ele>
<time>2025-05-21T10:17:06.266Z</time>
</trkpt>
<trkpt lat="31.7580200" lon="35.0937100">
<ele>518.760010</ele>
<time>2025-05-21T10:17:06.266Z</time>
</trkpt>
<trkpt lat="31.7582200" lon="35.0938900">
<ele>518.000000</ele>
<time>2025-05-21T10:17:06.266Z</time>
</trkpt>
<trkpt lat="31.7582500" lon="35.0939800">
<ele>518.229980</ele>
<time>2025-05-21T10:17:06.266Z</time>
</trkpt>
<trkpt lat="31.7582500" lon="35.0942000">
<ele>518.539978</ele>
<time>2025-05-21T10:17:06.266Z</time>
</trkpt>
<trkpt lat="31.7582500" lon="35.0944100">
<ele>517.559998</ele>
<time>2025-05-21T10:17:06.266Z</time>
</trkpt>
<trkpt lat="31.7582300" lon="35.0945100">
<ele>516.460022</ele>
<time>2025-05-21T10:17:06.266Z</time>
</trkpt>
<trkpt lat="31.7581400" lon="35.0946600">
<ele>513.739990</ele>
<time>2025-05-21T10:17:06.266Z</time>
</trkpt>
<trkpt lat="31.7577700" lon="35.0949500">
<ele>512.619995</ele>
<time>2025-05-21T10:17:06.266Z</time>
</trkpt>
<trkpt lat="31.7572900" lon="35.0954300">
<ele>518.720032</ele>
<time>2025-05-21T10:17:06.266Z</time>
</trkpt>
<trkpt lat="31.7566100" lon="35.0959800">
<ele>525.780029</ele>
<time>2025-05-21T10:17:06.266Z</time>
</trkpt>
<trkpt lat="31.7555600" lon="35.0967400">
<ele>536.909973</ele>
<time>2025-05-21T10:17:06.266Z</time>
</trkpt>
<trkpt lat="31.7544000" lon="35.0977200">
<ele>547.160034</ele>
<time>2025-05-21T10:17:06.266Z</time>
</trkpt>
<trkpt lat="31.7540000" lon="35.0982300">
<ele>550.710022</ele>
<time>2025-05-21T10:17:06.266Z</time>
</trkpt>
<trkpt lat="31.7539000" lon="35.0983500">
<ele>551.470032</ele>
<time>2025-05-21T10:17:06.266Z</time>
</trkpt>
<trkpt lat="31.7537400" lon="35.0985400">
<ele>556.669983</ele>
<time>2025-05-21T10:17:06.266Z</time>
</trkpt>
<trkpt lat="31.7536100" lon="35.0987400">
<ele>561.330017</ele>
<time>2025-05-21T10:17:06.266Z</time>
</trkpt>
<trkpt lat="31.7536000" lon="35.0988000">
<ele>562.460022</ele>
<time>2025-05-21T10:17:06.266Z</time>
</trkpt>
<trkpt lat="31.7535900" lon="35.0988600">
<ele>563.519958</ele>
<time>2025-05-21T10:17:06.266Z</time>
</trkpt>
<trkpt lat="31.7535900" lon="35.0990200">
<ele>565.780029</ele>
<time>2025-05-21T10:17:06.266Z</time>
</trkpt>
<trkpt lat="31.7537600" lon="35.0998300">
<ele>569.059998</ele>
<time>2025-05-21T10:17:06.266Z</time>
</trkpt>
<trkpt lat="31.7538100" lon="35.1002600">
<ele>574.010010</ele>
<time>2025-05-21T10:17:06.266Z</time>
</trkpt>
<trkpt lat="31.7538500" lon="35.1003700">
<ele>575.510010</ele>
<time>2025-05-21T10:17:06.266Z</time>
</trkpt>
<trkpt lat="31.7539100" lon="35.1005000">
<ele>577.049988</ele>
<time>2025-05-21T10:17:06.266Z</time>
</trkpt>
<trkpt lat="31.7541700" lon="35.1007000">
<ele>576.989990</ele>
<time>2025-05-21T10:17:06.266Z</time>
</trkpt>
<trkpt lat="31.7542400" lon="35.1007800">
<ele>576.510010</ele>
<time>2025-05-21T10:17:06.266Z</time>
</trkpt>
<trkpt lat="31.7542800" lon="35.1008800">
<ele>576.770020</ele>
<time>2025-05-21T10:17:06.266Z</time>
</trkpt>
<trkpt lat="31.7542800" lon="35.1010100">
<ele>577.899963</ele>
<time>2025-05-21T10:17:06.266Z</time>
</trkpt>
<trkpt lat="31.7542900" lon="35.1012700">
<ele>580.380005</ele>
<time>2025-05-21T10:17:06.266Z</time>
</trkpt>
<trkpt lat="31.7542700" lon="35.1013700">
<ele>581.679993</ele>
<time>2025-05-21T10:17:06.266Z</time>
</trkpt>
<trkpt lat="31.7541800" lon="35.1017400">
<ele>581.390015</ele>
<time>2025-05-21T10:17:06.266Z</time>
</trkpt>
<trkpt lat="31.7540900" lon="35.1023500">
<ele>578.549988</ele>
<time>2025-05-21T10:17:06.266Z</time>
</trkpt>
<trkpt lat="31.7540200" lon="35.1025900">
<ele>579.169983</ele>
<time>2025-05-21T10:17:06.266Z</time>
</trkpt>
<trkpt lat="31.7539700" lon="35.1027700">
<ele>579.690002</ele>
<time>2025-05-21T10:17:06.266Z</time>
</trkpt>
<trkpt lat="31.7538200" lon="35.1031600">
<ele>578.970032</ele>
<time>2025-05-21T10:17:06.266Z</time>
</trkpt>
<trkpt lat="31.7537500" lon="35.1034400">
<ele>577.850037</ele>
<time>2025-05-21T10:17:06.266Z</time>
</trkpt>
<trkpt lat="31.7537200" lon="35.1035000">
<ele>577.419983</ele>
<time>2025-05-21T10:17:06.266Z</time>
</trkpt>
<trkpt lat="31.7534700" lon="35.1038800">
<ele>576.109985</ele>
<time>2025-05-21T10:17:06.266Z</time>
</trkpt>
<trkpt lat="31.7534300" lon="35.1040000">
<ele>575.809998</ele>
<time>2025-05-21T10:17:06.266Z</time>
</trkpt>
<trkpt lat="31.7534000" lon="35.1042600">
<ele>574.539978</ele>
<time>2025-05-21T10:17:06.266Z</time>
</trkpt>
<trkpt lat="31.7533800" lon="35.1044800">
<ele>573.820007</ele>
<time>2025-05-21T10:17:06.266Z</time>
</trkpt>
<trkpt lat="31.7534000" lon="35.1049700">
<ele>570.940002</ele>
<time>2025-05-21T10:17:06.266Z</time>
</trkpt>
<trkpt lat="31.7533800" lon="35.1051800">
<ele>569.760010</ele>
<time>2025-05-21T10:17:06.266Z</time>
</trkpt>
<trkpt lat="31.7532800" lon="35.1055400">
<ele>571.350037</ele>
<time>2025-05-21T10:17:06.266Z</time>
</trkpt>
<trkpt lat="31.7531900" lon="35.1059000">
<ele>571.500000</ele>
<time>2025-05-21T10:17:06.266Z</time>
</trkpt>
<trkpt lat="31.7531100" lon="35.1061600">
<ele>571.140015</ele>
<time>2025-05-21T10:17:06.266Z</time>
</trkpt>
<trkpt lat="31.7527300" lon="35.1070900">
<ele>573.409973</ele>
<time>2025-05-21T10:17:06.266Z</time>
</trkpt>
<trkpt lat="31.7526800" lon="35.1071700">
<ele>573.790039</ele>
<time>2025-05-21T10:17:06.266Z</time>
</trkpt>
<trkpt lat="31.7526100" lon="35.1072800">
<ele>574.080017</ele>
<time>2025-05-21T10:17:06.266Z</time>
</trkpt>
<trkpt lat="31.7524800" lon="35.1074200">
<ele>574.970032</ele>
<time>2025-05-21T10:17:06.266Z</time>
</trkpt>
<trkpt lat="31.7524200" lon="35.1075200">
<ele>575.089966</ele>
<time>2025-05-21T10:17:06.266Z</time>
</trkpt>
<trkpt lat="31.7523300" lon="35.1077400">
<ele>574.860046</ele>
<time>2025-05-21T10:17:06.266Z</time>
</trkpt>
<trkpt lat="31.7521600" lon="35.1080300">
<ele>574.869995</ele>
<time>2025-05-21T10:17:06.266Z</time>
</trkpt>
<trkpt lat="31.7517700" lon="35.1085400">
<ele>575.109985</ele>
<time>2025-05-21T10:17:06.266Z</time>
</trkpt>
<trkpt lat="31.7513100" lon="35.1090600">
<ele>574.049988</ele>
<time>2025-05-21T10:17:06.266Z</time>
</trkpt>
<trkpt lat="31.7512700" lon="35.1091300">
<ele>574.010010</ele>
<time>2025-05-21T10:17:06.266Z</time>
</trkpt>
<trkpt lat="31.7511900" lon="35.1092500">
<ele>574.979980</ele>
<time>2025-05-21T10:17:06.266Z</time>
</trkpt>
<trkpt lat="31.7511400" lon="35.1093700">
<ele>576.789978</ele>
<time>2025-05-21T10:17:06.266Z</time>
</trkpt>
<trkpt lat="31.7511000" lon="35.1095600">
<ele>579.580017</ele>
<time>2025-05-21T10:17:06.266Z</time>
</trkpt>
<trkpt lat="31.7511000" lon="35.1096500">
<ele>580.880005</ele>
<time>2025-05-21T10:17:06.266Z</time>
</trkpt>
<trkpt lat="31.7510900" lon="35.1098100">
<ele>582.820007</ele>
<time>2025-05-21T10:17:06.266Z</time>
</trkpt>
<trkpt lat="31.7510900" lon="35.1099800">
<ele>584.700012</ele>
<time>2025-05-21T10:17:06.266Z</time>
</trkpt>
<trkpt lat="31.7511600" lon="35.1101500">
<ele>584.549988</ele>
<time>2025-05-21T10:17:06.266Z</time>
</trkpt>
<trkpt lat="31.7513600" lon="35.1102900">
<ele>582.229980</ele>
<time>2025-05-21T10:17:06.266Z</time>
</trkpt>
<trkpt lat="31.7514100" lon="35.1103600">
<ele>580.739990</ele>
<time>2025-05-21T10:17:06.266Z</time>
</trkpt>
<trkpt lat="31.7514600" lon="35.1104600">
<ele>578.799988</ele>
<time>2025-05-21T10:17:06.266Z</time>
</trkpt>
<trkpt lat="31.7515100" lon="35.1105900">
<ele>577.440002</ele>
<time>2025-05-21T10:17:06.266Z</time>
</trkpt>
<trkpt lat="31.7515300" lon="35.1109000">
<ele>577.340027</ele>
<time>2025-05-21T10:17:06.266Z</time>
</trkpt>
<trkpt lat="31.7515400" lon="35.1113300">
<ele>576.809998</ele>
<time>2025-05-21T10:17:06.266Z</time>
</trkpt>
<trkpt lat="31.7515200" lon="35.1116800">
<ele>577.630005</ele>
<time>2025-05-21T10:17:06.266Z</time>
</trkpt>
<trkpt lat="31.7514400" lon="35.1121500">
<ele>580.659973</ele>
<time>2025-05-21T10:17:06.266Z</time>
</trkpt>
<trkpt lat="31.7512300" lon="35.1134200">
<ele>579.359985</ele>
<time>2025-05-21T10:17:06.266Z</time>
</trkpt>
<trkpt lat="31.7512000" lon="35.1135200">
<ele>579.130005</ele>
<time>2025-05-21T10:17:06.266Z</time>
</trkpt>
<trkpt lat="31.7511300" lon="35.1137200">
<ele>578.540039</ele>
<time>2025-05-21T10:17:06.266Z</time>
</trkpt>
<trkpt lat="31.7510600" lon="35.1138500">
<ele>577.460022</ele>
<time>2025-05-21T10:17:06.266Z</time>
</trkpt>
<trkpt lat="31.7507800" lon="35.1141900">
<ele>578.369995</ele>
<time>2025-05-21T10:17:06.266Z</time>
</trkpt>
<trkpt lat="31.7507700" lon="35.1143100">
<ele>580.299988</ele>
<time>2025-05-21T10:17:06.266Z</time>
</trkpt>
<trkpt lat="31.7507700" lon="35.1143800">
<ele>581.419983</ele>
<time>2025-05-21T10:17:06.266Z</time>
</trkpt>
<trkpt lat="31.7507900" lon="35.1144400">
<ele>582.239990</ele>
<time>2025-05-21T10:17:06.266Z</time>
</trkpt>
<trkpt lat="31.7511200" lon="35.1147200">
<ele>585.909973</ele>
<time>2025-05-21T10:17:06.266Z</time>
</trkpt>
<trkpt lat="31.7514000" lon="35.1151400">
<ele>585.380005</ele>
<time>2025-05-21T10:17:06.266Z</time>
</trkpt>
<trkpt lat="31.7517500" lon="35.1155800">
<ele>582.750000</ele>
<time>2025-05-21T10:17:06.266Z</time>
</trkpt>
<trkpt lat="31.7520600" lon="35.1161800">
<ele>572.169983</ele>
<time>2025-05-21T10:17:06.266Z</time>
</trkpt>
<trkpt lat="31.7522200" lon="35.1166700">
<ele>568.099976</ele>
<time>2025-05-21T10:17:06.266Z</time>
</trkpt>
<trkpt lat="31.7523300" lon="35.1168300">
<ele>568.330017</ele>
<time>2025-05-21T10:17:06.266Z</time>
</trkpt>
<trkpt lat="31.7523700" lon="35.1168600">
<ele>568.119995</ele>
<time>2025-05-21T10:17:06.266Z</time>
</trkpt>
<trkpt lat="31.7524200" lon="35.1168600">
<ele>567.690002</ele>
<time>2025-05-21T10:17:06.266Z</time>
</trkpt>
<trkpt lat="31.7525700" lon="35.1168600">
<ele>566.970032</ele>
<time>2025-05-21T10:17:06.266Z</time>
</trkpt>
<trkpt lat="31.7526600" lon="35.1168600">
<ele>566.929993</ele>
<time>2025-05-21T10:17:06.266Z</time>
</trkpt>
<trkpt lat="31.7529900" lon="35.1167200">
<ele>570.220032</ele>
<time>2025-05-21T10:17:06.266Z</time>
</trkpt>
<trkpt lat="31.7532200" lon="35.1165600">
<ele>574.960022</ele>
<time>2025-05-21T10:17:06.266Z</time>
</trkpt>
<trkpt lat="31.7533800" lon="35.1164900">
<ele>576.719971</ele>
<time>2025-05-21T10:17:06.266Z</time>
</trkpt>
<trkpt lat="31.7534400" lon="35.1164800">
<ele>577.260010</ele>
<time>2025-05-21T10:17:06.266Z</time>
</trkpt>
<trkpt lat="31.7535500" lon="35.1164800">
<ele>578.589966</ele>
<time>2025-05-21T10:17:06.266Z</time>
</trkpt>
<trkpt lat="31.7536100" lon="35.1165000">
<ele>579.390015</ele>
<time>2025-05-21T10:17:06.266Z</time>
</trkpt>
<trkpt lat="31.7536500" lon="35.1165700">
<ele>577.830017</ele>
<time>2025-05-21T10:17:06.266Z</time>
</trkpt>
<trkpt lat="31.7542300" lon="35.1180200">
<ele>566.330017</ele>
<time>2025-05-21T10:17:06.266Z</time>
</trkpt>
<trkpt lat="31.7542700" lon="35.1180500">
<ele>566.040039</ele>
<time>2025-05-21T10:17:06.266Z</time>
</trkpt>
<trkpt lat="31.7543300" lon="35.1180700">
<ele>565.580017</ele>
<time>2025-05-21T10:17:06.266Z</time>
</trkpt>
<trkpt lat="31.7545400" lon="35.1181000">
<ele>561.670044</ele>
<time>2025-05-21T10:17:06.266Z</time>
</trkpt>
<trkpt lat="31.7548400" lon="35.1181700">
<ele>555.960022</ele>
<time>2025-05-21T10:17:06.266Z</time>
</trkpt>
<trkpt lat="31.7552000" lon="35.1183600">
<ele>553.510010</ele>
<time>2025-05-21T10:17:06.266Z</time>
</trkpt>
<trkpt lat="31.7553000" lon="35.1184300">
<ele>552.840027</ele>
<time>2025-05-21T10:17:06.266Z</time>
</trkpt>
<trkpt lat="31.7558500" lon="35.1188900">
<ele>556.729980</ele>
<time>2025-05-21T10:17:06.266Z</time>
</trkpt>
<trkpt lat="31.7559900" lon="35.1190600">
<ele>559.190002</ele>
<time>2025-05-21T10:17:06.266Z</time>
</trkpt>
<trkpt lat="31.7561300" lon="35.1193300">
<ele>562.859985</ele>
<time>2025-05-21T10:17:06.266Z</time>
</trkpt>
<trkpt lat="31.7562000" lon="35.1193900">
<ele>562.109985</ele>
<time>2025-05-21T10:17:06.266Z</time>
</trkpt>
<trkpt lat="31.7565300" lon="35.1196200">
<ele>557.090027</ele>
<time>2025-05-21T10:17:06.266Z</time>
</trkpt>
<trkpt lat="31.7566000" lon="35.1196800">
<ele>556.080017</ele>
<time>2025-05-21T10:17:06.266Z</time>
</trkpt>
<trkpt lat="31.7568100" lon="35.1199800">
<ele>552.000000</ele>
<time>2025-05-21T10:17:06.266Z</time>
</trkpt>
<trkpt lat="31.7569400" lon="35.1202300">
<ele>547.020020</ele>
<time>2025-05-21T10:17:06.266Z</time>
</trkpt>
<trkpt lat="31.7569800" lon="35.1203700">
<ele>547.339966</ele>
<time>2025-05-21T10:17:06.266Z</time>
</trkpt>
<trkpt lat="31.7569900" lon="35.1204800">
<ele>548.880005</ele>
<time>2025-05-21T10:17:06.266Z</time>
</trkpt>
<trkpt lat="31.7569900" lon="35.1206700">
<ele>551.500000</ele>
<time>2025-05-21T10:17:06.266Z</time>
</trkpt>
<trkpt lat="31.7569900" lon="35.1208400">
<ele>553.390015</ele>
<time>2025-05-21T10:17:06.266Z</time>
</trkpt>
<trkpt lat="31.7569600" lon="35.1210000">
<ele>555.109985</ele>
<time>2025-05-21T10:17:06.266Z</time>
</trkpt>
<trkpt lat="31.7568400" lon="35.1213100">
<ele>560.130005</ele>
<time>2025-05-21T10:17:06.266Z</time>
</trkpt>
<trkpt lat="31.7568200" lon="35.1214900">
<ele>563.059998</ele>
<time>2025-05-21T10:17:06.266Z</time>
</trkpt>
<trkpt lat="31.7568200" lon="35.1215600">
<ele>564.320007</ele>
<time>2025-05-21T10:17:06.266Z</time>
</trkpt>
<trkpt lat="31.7568500" lon="35.1216300">
<ele>565.039978</ele>
<time>2025-05-21T10:17:06.266Z</time>
</trkpt>
<trkpt lat="31.7569100" lon="35.1216700">
<ele>564.700012</ele>
<time>2025-05-21T10:17:06.266Z</time>
</trkpt>
<trkpt lat="31.7571400" lon="35.1217000">
<ele>557.760010</ele>
<time>2025-05-21T10:17:06.266Z</time>
</trkpt>
<trkpt lat="31.7573400" lon="35.1217400">
<ele>552.570007</ele>
<time>2025-05-21T10:17:06.266Z</time>
</trkpt>
<trkpt lat="31.7576900" lon="35.1218200">
<ele>547.750000</ele>
<time>2025-05-21T10:17:06.266Z</time>
</trkpt>
<trkpt lat="31.7579300" lon="35.1218500">
<ele>544.679993</ele>
<time>2025-05-21T10:17:06.266Z</time>
</trkpt>
<trkpt lat="31.7581800" lon="35.1219200">
<ele>544.140015</ele>
<time>2025-05-21T10:17:06.266Z</time>
</trkpt>
<trkpt lat="31.7584200" lon="35.1219300">
<ele>543.750000</ele>
<time>2025-05-21T10:17:06.266Z</time>
</trkpt>
<trkpt lat="31.7584200" lon="35.1219400">
<ele>544.179993</ele>
<time>2025-05-21T10:17:06.266Z</time>
</trkpt>
<trkpt lat="31.7585800" lon="35.1219500">
<ele>543.250000</ele>
<time>2025-05-21T10:17:06.266Z</time>
</trkpt>
<trkpt lat="31.7588300" lon="35.1220200">
<ele>537.679993</ele>
<time>2025-05-21T10:17:06.266Z</time>
</trkpt>
<trkpt lat="31.7590500" lon="35.1221400">
<ele>538.989990</ele>
<time>2025-05-21T10:17:06.266Z</time>
</trkpt>
<trkpt lat="31.7591900" lon="35.1222800">
<ele>540.049988</ele>
<time>2025-05-21T10:17:06.266Z</time>
</trkpt>
<trkpt lat="31.7594100" lon="35.1224400">
<ele>536.690002</ele>
<time>2025-05-21T10:17:06.266Z</time>
</trkpt>
<trkpt lat="31.7594900" lon="35.1225600">
<ele>534.130005</ele>
<time>2025-05-21T10:17:06.266Z</time>
</trkpt>
<trkpt lat="31.7595500" lon="35.1227100">
<ele>531.359985</ele>
<time>2025-05-21T10:17:06.266Z</time>
</trkpt>
<trkpt lat="31.7595700" lon="35.1228100">
<ele>529.799988</ele>
<time>2025-05-21T10:17:06.266Z</time>
</trkpt>
<trkpt lat="31.7595300" lon="35.1229400">
<ele>528.619995</ele>
<time>2025-05-21T10:17:06.266Z</time>
</trkpt>
<trkpt lat="31.7594000" lon="35.1231200">
<ele>528.859985</ele>
<time>2025-05-21T10:17:06.266Z</time>
</trkpt>
<trkpt lat="31.7593400" lon="35.1232200">
<ele>529.029968</ele>
<time>2025-05-21T10:17:06.266Z</time>
</trkpt>
<trkpt lat="31.7593500" lon="35.1233000">
<ele>528.039978</ele>
<time>2025-05-21T10:17:06.266Z</time>
</trkpt>
<trkpt lat="31.7594300" lon="35.1233200">
<ele>525.599976</ele>
<time>2025-05-21T10:17:06.266Z</time>
</trkpt>
<trkpt lat="31.7595700" lon="35.1232600">
<ele>523.109985</ele>
<time>2025-05-21T10:17:06.266Z</time>
</trkpt>
<trkpt lat="31.7596300" lon="35.1232500">
<ele>521.789978</ele>
<time>2025-05-21T10:17:06.266Z</time>
</trkpt>
<trkpt lat="31.7599500" lon="35.1232100">
<ele>517.880005</ele>
<time>2025-05-21T10:17:06.266Z</time>
</trkpt>
<trkpt lat="31.7600100" lon="35.1232400">
<ele>517.140015</ele>
<time>2025-05-21T10:17:06.266Z</time>
</trkpt>
<trkpt lat="31.7600400" lon="35.1232800">
<ele>516.440002</ele>
<time>2025-05-21T10:17:06.266Z</time>
</trkpt>
<trkpt lat="31.7598500" lon="35.1235000">
<ele>517.380005</ele>
<time>2025-05-21T10:17:06.266Z</time>
</trkpt>
<trkpt lat="31.7599300" lon="35.1235800">
<ele>517.500000</ele>
<time>2025-05-21T10:17:06.266Z</time>
</trkpt>
<trkpt lat="31.7601700" lon="35.1234200">
<ele>514.630005</ele>
<time>2025-05-21T10:17:06.266Z</time>
</trkpt>
<trkpt lat="31.7603500" lon="35.1232900">
<ele>511.399994</ele>
<time>2025-05-21T10:17:06.266Z</time>
</trkpt>
<trkpt lat="31.7604500" lon="35.1231900">
<ele>510.119995</ele>
<time>2025-05-21T10:17:06.266Z</time>
</trkpt>
<trkpt lat="31.7608600" lon="35.1227300">
<ele>499.600006</ele>
<time>2025-05-21T10:17:06.266Z</time>
</trkpt>
<trkpt lat="31.7610300" lon="35.1225200">
<ele>496.680023</ele>
<time>2025-05-21T10:17:06.266Z</time>
</trkpt>
<trkpt lat="31.7610900" lon="35.1224100">
<ele>496.399994</ele>
<time>2025-05-21T10:17:06.266Z</time>
</trkpt>
<trkpt lat="31.7610900" lon="35.1224100">
<ele>496.399994</ele>
<time>2025-05-21T10:17:06.266Z</time>
</trkpt>
<trkpt lat="31.7611300" lon="35.1223400">
<ele>496.430023</ele>
<time>2025-05-21T10:17:06.266Z</time>
</trkpt>
<trkpt lat="31.7612100" lon="35.1221000">
<ele>495.639984</ele>
<time>2025-05-21T10:17:06.266Z</time>
</trkpt>
<trkpt lat="31.7612800" lon="35.1215300">
<ele>490.650024</ele>
<time>2025-05-21T10:17:06.266Z</time>
</trkpt>
<trkpt lat="31.7616000" lon="35.1206400">
<ele>479.529999</ele>
<time>2025-05-21T10:17:06.266Z</time>
</trkpt>
<trkpt lat="31.7616300" lon="35.1205300">
<ele>478.869995</ele>
<time>2025-05-21T10:17:06.266Z</time>
</trkpt>
<trkpt lat="31.7617000" lon="35.1203100">
<ele>478.790009</ele>
<time>2025-05-21T10:17:06.266Z</time>
</trkpt>
<trkpt lat="31.7617600" lon="35.1201600">
<ele>477.819977</ele>
<time>2025-05-21T10:17:06.266Z</time>
</trkpt>
<trkpt lat="31.7620600" lon="35.1195700">
<ele>471.080017</ele>
<time>2025-05-21T10:17:06.266Z</time>
</trkpt>
<trkpt lat="31.7621600" lon="35.1194000">
<ele>470.250000</ele>
<time>2025-05-21T10:17:06.266Z</time>
</trkpt>
<trkpt lat="31.7626600" lon="35.1198800">
<ele>474.730011</ele>
<time>2025-05-21T10:17:06.266Z</time>
</trkpt>
<trkpt lat="31.7627200" lon="35.1198300">
<ele>473.300018</ele>
<time>2025-05-21T10:17:06.266Z</time>
</trkpt>
<trkpt lat="31.7627400" lon="35.1196900">
<ele>471.200012</ele>
<time>2025-05-21T10:17:06.266Z</time>
</trkpt>
<trkpt lat="31.7628900" lon="35.1196900">
<ele>469.179993</ele>
<time>2025-05-21T10:17:06.266Z</time>
</trkpt>
<trkpt lat="31.7629600" lon="35.1195800">
<ele>467.850006</ele>
<time>2025-05-21T10:17:06.266Z</time>
</trkpt>
<trkpt lat="31.7630200" lon="35.1193000">
<ele>469.850006</ele>
<time>2025-05-21T10:17:06.266Z</time>
</trkpt>
<trkpt lat="31.7632600" lon="35.1195800">
<ele>470.000000</ele>
<time>2025-05-21T10:17:06.266Z</time>
</trkpt>
<trkpt lat="31.7634000" lon="35.1197400">
<ele>469.550018</ele>
<time>2025-05-21T10:17:06.266Z</time>
</trkpt>
<trkpt lat="31.7635300" lon="35.1199400">
<ele>471.390015</ele>
<time>2025-05-21T10:17:06.266Z</time>
</trkpt>
<trkpt lat="31.7636600" lon="35.1202300">
<ele>472.249969</ele>
<time>2025-05-21T10:17:06.266Z</time>
</trkpt>
<trkpt lat="31.7637000" lon="35.1205500">
<ele>472.769989</ele>
<time>2025-05-21T10:17:06.266Z</time>
</trkpt>
<trkpt lat="31.7637700" lon="35.1213400">
<ele>471.699982</ele>
<time>2025-05-21T10:17:06.266Z</time>
</trkpt>
<trkpt lat="31.7638000" lon="35.1222300">
<ele>470.060028</ele>
<time>2025-05-21T10:17:06.266Z</time>
</trkpt>
<trkpt lat="31.7638500" lon="35.1227700">
<ele>468.630005</ele>
<time>2025-05-21T10:17:06.266Z</time>
</trkpt>
<trkpt lat="31.7639700" lon="35.1236000">
<ele>471.720001</ele>
<time>2025-05-21T10:17:06.266Z</time>
</trkpt>
<trkpt lat="31.7640300" lon="35.1238000">
<ele>474.100006</ele>
<time>2025-05-21T10:17:06.266Z</time>
</trkpt>
<trkpt lat="31.7640800" lon="35.1240800">
<ele>475.849976</ele>
<time>2025-05-21T10:17:06.266Z</time>
</trkpt>
<trkpt lat="31.7641100" lon="35.1243800">
<ele>477.910004</ele>
<time>2025-05-21T10:17:06.266Z</time>
</trkpt>
<trkpt lat="31.7641000" lon="35.1245100">
<ele>478.230011</ele>
<time>2025-05-21T10:17:06.266Z</time>
</trkpt>
<trkpt lat="31.7640000" lon="35.1249000">
<ele>475.940002</ele>
<time>2025-05-21T10:17:06.266Z</time>
</trkpt>
<trkpt lat="31.7639000" lon="35.1251700">
<ele>471.269989</ele>
<time>2025-05-21T10:17:06.266Z</time>
</trkpt>
<trkpt lat="31.7636100" lon="35.1257800">
<ele>468.560028</ele>
<time>2025-05-21T10:17:06.266Z</time>
</trkpt>
<trkpt lat="31.7635400" lon="35.1259700">
<ele>467.830017</ele>
<time>2025-05-21T10:17:06.266Z</time>
</trkpt>
<trkpt lat="31.7634900" lon="35.1261500">
<ele>468.439972</ele>
<time>2025-05-21T10:17:06.266Z</time>
</trkpt>
<trkpt lat="31.7634100" lon="35.1268300">
<ele>474.119995</ele>
<time>2025-05-21T10:17:06.266Z</time>
</trkpt>
<trkpt lat="31.7634100" lon="35.1269900">
<ele>475.039978</ele>
<time>2025-05-21T10:17:06.266Z</time>
</trkpt>
<trkpt lat="31.7634500" lon="35.1271500">
<ele>476.310028</ele>
<time>2025-05-21T10:17:06.266Z</time>
</trkpt>
<trkpt lat="31.7635400" lon="35.1272600">
<ele>477.609985</ele>
<time>2025-05-21T10:17:06.266Z</time>
</trkpt>
<trkpt lat="31.7637200" lon="35.1274500">
<ele>476.109985</ele>
<time>2025-05-21T10:17:06.266Z</time>
</trkpt>
<trkpt lat="31.7638500" lon="35.1275500">
<ele>475.549988</ele>
<time>2025-05-21T10:17:06.266Z</time>
</trkpt>
<trkpt lat="31.7642000" lon="35.1277400">
<ele>467.040009</ele>
<time>2025-05-21T10:17:06.266Z</time>
</trkpt>
<trkpt lat="31.7643300" lon="35.1278100">
<ele>467.350006</ele>
<time>2025-05-21T10:17:06.266Z</time>
</trkpt>
<trkpt lat="31.7644300" lon="35.1278500">
<ele>468.750000</ele>
<time>2025-05-21T10:17:06.266Z</time>
</trkpt>
<trkpt lat="31.7645500" lon="35.1278700">
<ele>468.059998</ele>
<time>2025-05-21T10:17:06.266Z</time>
</trkpt>
<trkpt lat="31.7647900" lon="35.1278600">
<ele>466.649994</ele>
<time>2025-05-21T10:17:06.266Z</time>
</trkpt>
<trkpt lat="31.7656700" lon="35.1276000">
<ele>470.400024</ele>
<time>2025-05-21T10:17:06.266Z</time>
</trkpt>
<trkpt lat="31.7660600" lon="35.1275100">
<ele>471.940002</ele>
<time>2025-05-21T10:17:06.266Z</time>
</trkpt>
<trkpt lat="31.7664800" lon="35.1275200">
<ele>478.899994</ele>
<time>2025-05-21T10:17:06.266Z</time>
</trkpt>
<trkpt lat="31.7666500" lon="35.1275500">
<ele>480.590027</ele>
<time>2025-05-21T10:17:06.266Z</time>
</trkpt>
<trkpt lat="31.7667700" lon="35.1275900">
<ele>482.779968</ele>
<time>2025-05-21T10:17:06.266Z</time>
</trkpt>
<trkpt lat="31.7670100" lon="35.1277300">
<ele>486.889984</ele>
<time>2025-05-21T10:17:06.266Z</time>
</trkpt>
<trkpt lat="31.7677500" lon="35.1282300">
<ele>483.540009</ele>
<time>2025-05-21T10:17:06.266Z</time>
</trkpt>
<trkpt lat="31.7680300" lon="35.1284500">
<ele>488.080017</ele>
<time>2025-05-21T10:17:06.266Z</time>
</trkpt>
<trkpt lat="31.7680800" lon="35.1285100">
<ele>488.139984</ele>
<time>2025-05-21T10:17:06.266Z</time>
</trkpt>
<trkpt lat="31.7681200" lon="35.1286000">
<ele>487.339996</ele>
<time>2025-05-21T10:17:06.266Z</time>
</trkpt>
<trkpt lat="31.7681900" lon="35.1288000">
<ele>486.529999</ele>
<time>2025-05-21T10:17:06.266Z</time>
</trkpt>
<trkpt lat="31.7683500" lon="35.1295200">
<ele>480.869995</ele>
<time>2025-05-21T10:17:06.266Z</time>
</trkpt>
<trkpt lat="31.7686000" lon="35.1303600">
<ele>485.099976</ele>
<time>2025-05-21T10:17:06.266Z</time>
</trkpt>
<trkpt lat="31.7686400" lon="35.1304300">
<ele>484.610016</ele>
<time>2025-05-21T10:17:06.266Z</time>
</trkpt>
<trkpt lat="31.7687300" lon="35.1305300">
<ele>482.630005</ele>
<time>2025-05-21T10:17:06.266Z</time>
</trkpt>
<trkpt lat="31.7688200" lon="35.1305900">
<ele>480.609985</ele>
<time>2025-05-21T10:17:06.266Z</time>
</trkpt>
<trkpt lat="31.7689600" lon="35.1306300">
<ele>477.790009</ele>
<time>2025-05-21T10:17:06.266Z</time>
</trkpt>
<trkpt lat="31.7691800" lon="35.1306800">
<ele>474.479980</ele>
<time>2025-05-21T10:17:06.266Z</time>
</trkpt>
</trkseg>
</trk>
</gpx>
